GFSFLT2_sfc_wetblb_000.txt.gz
Wetbulb
55.72 57.66 57.38 54.75 54.24 54.06 54.56 54.42 54.37 55.15 56.73 56.83 56.67 57.00 57.51 57.56 57.24 56.64 55.65 54.24 53.26 52.56 51.73 50.56 48.95 48.49 48.32
52.83 53.99 55.00 56.28 55.58 54.41 53.11 53.20 53.42 53.92 55.02 55.68 56.47 56.47 56.57 56.01 54.83 54.02 52.88 52.14 51.08 50.30 49.38 48.09 47.57 47.76 47.79
50.94 52.98 53.70 54.87 48.75 49.79 51.49 50.97 51.37 51.63 53.58 54.57 55.88 55.80 55.61 54.92 53.19 51.85 50.70 49.57 48.58 47.49 46.46 45.87 45.98 46.20 46.32
50.34 50.52 51.64 52.65 49.09 51.47 48.23 43.88 46.52 47.16 49.11 51.42 53.50 54.22 54.73 53.21 51.05 49.49 48.25 47.23 46.61 45.80 44.56 43.81 43.68 43.61 43.92
47.51 49.28 50.17 49.50 46.64 47.07 47.02 48.88 44.41 46.86 44.05 46.18 49.58 50.75 50.88 51.10 48.40 47.14 46.29 45.39 45.18 44.55 43.97 43.10 42.31 41.79 42.16
44.58 45.44 46.84 48.89 50.30 50.19 49.01 46.35 44.02 42.56 42.81 43.48 45.28 44.07 44.87 46.17 46.41 45.91 44.78 44.43 43.90 43.18 42.92 42.29 41.78 41.33 41.63
42.55 43.31 44.44 47.16 49.50 48.92 48.99 48.26 47.23 39.80 41.68 39.17 38.44 39.95 38.79 41.46 44.68 43.88 43.51 42.94 42.21 41.78 41.60 41.23 41.13 40.86 40.85
42.96 43.07 44.16 45.87 46.98 47.06 47.52 46.03 36.09 37.55 39.31 35.24 34.53 35.40 35.12 37.42 43.31 42.59 41.61 40.90 40.83 41.14 41.09 40.67 39.99 39.86 40.23
45.19 45.33 45.82 46.50 46.98 45.64 43.23 39.18 36.54 33.61 33.10 32.19 30.86 29.99 31.85 32.26 36.05 39.84 39.36 39.62 40.30 40.42 40.40 39.94 39.56 39.26 37.97
41.61 43.48 44.90 44.62 43.09 41.37 42.55 40.35 35.71 29.90 31.98 31.33 29.55 29.54 27.48 29.29 30.90 31.76 35.54 39.58 40.00 39.99 39.93 39.90 39.32 32.96 30.66
38.75 41.01 41.29 34.85 34.96 34.44 35.05 38.30 35.65 33.03 32.97 32.03 29.01 27.01 27.41 25.32 26.87 27.97 27.03 27.44 28.09 32.98 38.37 38.43 38.35 35.26 27.90
34.59 35.21 34.03 33.25 32.78 32.24 32.48 32.63 33.25 33.61 34.33 31.66 28.16 26.99 25.01 23.74 23.13 23.66 23.62 24.60 25.16 24.36 24.28 28.63 33.78 36.18 36.05
32.88 33.36 33.44 31.97 29.88 29.59 30.22 29.73 28.81 29.06 28.72 28.57 28.29 26.16 25.62 24.21 21.63 21.62 22.32 23.39 23.00 22.62 22.62 22.76 22.98 23.62 23.00
32.16 33.06 31.68 29.44 28.29 28.66 28.03 28.22 26.29 24.74 27.13 27.08 26.31 25.33 22.37 23.01 22.07 20.56 20.60 19.62 21.88 21.86 22.09 22.14 22.96 23.30 22.91
31.58 30.47 30.03 28.10 26.84 27.62 27.77 27.09 24.91 23.97 23.78 25.37 25.92 24.94 23.50 21.18 18.14 19.80 19.99 20.09 20.89 21.20 21.15 20.60 21.74 22.77 23.19
30.13 29.52 28.45 26.70 25.85 26.57 27.22 26.31 23.97 23.96 23.32 23.91 23.18 18.36 17.14 19.50 23.23 20.04 20.70 20.37 20.52 20.99 21.25 19.70 20.08 21.45 22.74
28.96 28.38 27.50 26.27 27.24 25.62 26.49 26.24 24.88 23.19 20.59 19.34 13.12 8.75 7.55 9.79 16.86 26.95 20.93 21.12 20.96 20.90 20.89 20.21 20.05 21.31 22.72

GFSFLT2_sfc_wetblb_003.txt.gz
Wetbulb
49.88 51.71 52.28 53.01 54.70 55.30 54.70 55.02 55.47 55.73 56.89 56.92 56.46 56.36 56.61 57.01 57.50 58.71 59.24 59.51 59.90 60.84 60.37 58.48 56.84 54.88 53.23
46.51 48.08 49.88 52.00 53.36 54.04 54.48 54.35 53.75 54.56 55.50 55.56 55.67 55.99 56.22 56.18 56.30 56.99 57.27 57.83 58.34 58.61 58.28 57.42 55.74 54.05 52.48
44.89 47.53 48.41 50.22 51.57 52.83 51.77 53.12 51.62 51.57 53.61 54.34 54.98 55.30 55.41 55.67 55.66 55.94 55.96 56.13 55.72 55.03 54.77 54.14 53.41 51.90 50.60
41.07 43.48 45.24 47.17 48.64 48.60 49.35 47.47 47.54 49.42 50.16 50.66 52.20 52.90 54.31 54.55 54.79 54.35 53.91 53.74 53.62 52.89 52.01 51.10 49.37 48.64 48.74
38.03 40.03 40.67 42.18 43.26 46.01 46.49 48.52 49.40 47.31 47.36 46.18 46.93 48.01 50.11 52.82 53.09 52.47 51.97 52.12 51.60 51.06 49.63 48.02 46.81 46.53 46.35
36.89 37.17 38.62 40.62 42.39 43.11 42.94 42.58 42.77 44.59 44.55 45.85 44.91 45.63 48.29 50.61 52.51 51.14 49.91 49.80 49.21 48.27 47.20 45.81 44.73 44.30 43.70
37.33 38.51 38.98 40.92 41.55 40.62 40.59 42.22 43.40 46.06 42.62 42.16 40.37 42.83 40.50 43.63 50.19 49.52 48.53 47.67 47.00 46.31 45.40 44.42 43.57 42.86 42.24
39.99 41.12 41.37 42.29 43.07 43.03 42.66 42.67 43.78 44.12 42.13 40.35 37.33 39.14 36.28 39.29 47.95 46.97 45.88 45.33 45.05 44.34 43.69 43.11 42.18 42.24 41.94
41.45 42.15 41.77 41.59 43.22 42.99 41.24 40.10 39.40 41.28 37.48 36.72 31.64 30.94 32.76 34.38 41.56 44.78 44.32 43.92 43.10 42.41 41.87 41.76 41.43 41.50 40.58
36.53 37.30 37.87 38.37 40.93 38.54 37.06 34.10 35.00 36.30 33.62 34.22 29.92 29.98 28.30 29.51 31.74 37.84 38.39 40.14 39.97 40.73 41.78 41.47 41.13 37.08 33.75
33.69 33.92 34.49 35.18 36.23 36.24 35.12 33.09 31.94 33.40 36.39 34.90 30.14 28.84 28.41 25.52 27.62 29.30 30.69 33.02 36.12 39.00 40.61 40.81 40.49 36.64 31.96
31.70 31.98 32.43 32.48 33.91 32.79 31.32 31.41 31.75 30.94 34.17 32.92 29.07 27.46 25.46 24.44 23.34 25.16 25.68 26.36 27.74 26.83 27.98 35.96 40.19 39.93 37.01
30.46 30.80 32.32 32.85 32.36 29.21 30.36 29.96 28.03 27.46 27.78 29.64 28.86 28.03 26.92 23.98 22.33 22.54 23.35 23.68 25.11 24.65 24.36 24.84 25.67 25.19 27.79
30.05 31.60 31.95 31.32 28.88 28.78 27.74 27.81 25.66 24.56 26.39 27.49 26.40 26.19 23.58 24.00 24.37 23.74 23.50 22.55 23.28 23.23 23.47 23.12 23.44 24.11 24.14
29.76 29.65 28.74 29.04 28.01 27.75 27.61 27.09 24.67 23.53 23.03 24.97 25.91 25.24 24.26 23.67 21.95 22.59 21.10 21.24 22.23 21.84 21.84 21.33 22.26 22.86 23.15
29.21 29.05 27.93 27.58 27.32 26.64 27.21 25.72 24.06 23.69 22.88 23.87 23.05 21.74 21.16 22.72 25.35 21.11 20.76 20.64 21.17 21.62 21.42 19.76 20.04 21.36 22.56
28.72 28.71 27.55 26.89 26.87 25.57 26.48 25.87 23.83 22.61 21.20 20.24 18.29 16.96 15.94 13.94 17.76 25.92 20.84 20.63 20.40 20.28 20.53 20.09 19.80 21.32 22.71

GFSFLT2_sfc_wetblb_006.txt.gz
Wetbulb
39.81 40.57 41.32 44.34 48.44 50.71 51.39 52.27 53.76 55.22 56.47 56.47 56.38 56.35 56.43 56.68 57.18 57.75 58.12 58.89 59.95 61.07 61.63 61.73 61.84 61.66 61.35
36.92 38.29 40.26 41.74 43.85 45.78 47.86 49.95 51.62 53.31 55.12 55.49 55.61 55.64 55.95 56.15 56.08 56.39 56.59 56.95 57.45 58.68 59.89 60.28 60.74 60.98 60.65
35.33 38.26 38.16 39.07 41.27 43.31 43.96 44.78 48.61 50.67 53.39 54.12 54.28 54.65 54.97 55.05 55.14 55.21 55.21 55.30 55.69 56.00 57.16 58.25 59.15 59.96 59.79
34.95 35.15 35.78 37.98 38.86 38.30 39.12 42.50 42.75 46.54 48.74 50.53 52.15 52.46 53.08 53.66 53.67 53.04 53.21 53.94 54.96 55.59 55.58 55.61 56.52 57.88 57.57
33.62 33.38 33.56 34.41 34.80 37.61 38.83 41.08 42.25 43.25 43.55 45.80 48.53 47.87 48.05 50.02 50.24 50.65 51.27 52.02 53.20 54.56 55.36 55.89 55.57 55.60 55.16
32.11 31.02 31.44 33.66 36.90 38.15 37.95 37.48 36.64 42.82 43.06 43.49 45.26 45.91 46.66 46.84 49.59 50.58 51.06 51.78 52.70 53.48 54.37 54.64 52.94 52.27 51.69
30.76 30.79 32.00 35.52 37.76 35.96 36.06 35.75 35.56 39.72 41.28 39.72 43.31 43.17 45.46 46.01 47.74 48.99 50.38 51.27 51.87 52.37 51.39 50.29 49.46 49.24 48.61
34.66 35.00 36.62 38.19 36.80 37.64 36.60 36.63 38.54 40.78 42.55 38.87 42.39 41.39 39.47 39.43 43.36 45.12 47.91 49.84 50.80 49.77 48.31 47.36 46.62 45.91 45.51
37.50 38.04 38.39 38.30 37.93 36.00 33.11 33.09 31.94 33.87 38.09 38.44 39.53 35.44 32.48 34.05 36.67 44.38 48.78 48.42 47.55 46.54 45.79 45.13 44.41 43.99 43.00
32.45 33.71 34.58 34.85 37.20 35.88 34.08 31.07 30.87 29.98 33.69 34.82 32.11 31.32 30.86 30.27 32.64 37.70 43.43 45.98 45.65 45.26 44.78 44.06 43.19 39.48 38.70
29.90 31.06 32.12 32.94 33.56 34.27 34.11 32.11 29.21 28.64 32.99 34.05 31.89 30.57 30.12 27.05 27.93 29.51 34.23 38.19 38.51 40.40 42.19 41.95 41.96 38.99 36.51
27.44 28.42 29.59 30.00 31.59 32.23 32.65 32.01 30.56 28.35 27.90 27.83 29.23 30.98 26.61 25.05 25.56 26.29 27.31 29.45 32.65 34.40 38.15 41.29 41.72 40.28 38.70
25.76 26.64 27.93 29.95 31.76 30.68 30.88 29.61 28.27 27.80 26.73 26.44 29.07 28.33 27.62 25.69 23.33 23.02 25.28 25.90 29.05 29.03 31.02 31.54 31.40 36.83 35.55
25.07 25.82 27.17 28.82 28.70 29.28 28.35 27.00 25.74 25.57 27.06 27.45 25.89 26.43 24.41 25.46 26.59 24.31 25.53 24.69 25.27 26.57 26.75 25.45 26.52 28.61 29.92
23.63 23.94 25.09 27.81 27.68 28.24 27.47 26.73 24.65 23.63 23.28 25.24 25.90 25.99 25.59 25.13 23.40 23.92 22.93 23.33 24.45 23.76 24.16 22.93 23.84 25.07 25.67
23.17 24.03 24.11 26.68 26.02 27.32 26.81 25.78 23.93 23.37 22.54 22.63 21.91 22.41 22.89 24.58 27.13 22.21 22.19 21.93 22.71 23.19 23.41 21.58 21.37 23.24 24.54
22.85 23.86 24.68 26.56 25.90 25.58 25.80 25.59 23.24 21.96 20.49 20.15 18.42 17.87 18.55 16.67 20.44 26.98 21.80 21.72 21.58 21.32 21.76 21.51 21.03 22.17 23.48

GFSFLT2_sfc_wetblb_009.txt.gz
Wetbulb
42.26 42.80 40.97 40.94 42.72 44.47 44.66 45.23 48.77 50.18 51.17 51.42 51.31 52.95 54.39 55.39 55.93 56.65 57.48 58.16 58.99 60.00 60.61 61.10 62.08 62.00 61.92
38.51 38.46 38.46 40.55 41.65 41.38 42.02 45.15 45.79 46.52 47.55 50.47 49.56 50.26 51.89 53.41 53.80 55.00 55.59 56.21 56.75 57.55 58.75 59.47 59.83 60.95 61.69
35.05 37.30 38.46 39.49 38.66 39.77 40.94 42.11 43.85 44.83 46.16 47.71 48.81 48.32 49.13 49.93 52.14 53.88 54.27 54.48 54.99 55.30 55.97 57.01 58.25 59.14 60.59
34.42 34.41 35.53 36.89 37.33 35.39 35.94 38.96 40.38 43.59 44.82 46.22 46.90 47.38 48.45 50.18 51.31 51.41 51.57 52.44 53.66 54.48 54.78 54.67 55.12 55.88 56.90
32.55 33.05 33.10 33.14 32.97 35.04 34.24 34.98 37.72 40.47 41.99 43.99 45.15 45.87 46.38 46.61 48.57 49.36 50.09 50.88 51.66 52.50 53.38 54.73 54.27 54.54 55.69
31.25 30.68 31.48 33.15 34.59 33.52 33.55 33.17 32.68 39.86 38.42 37.80 41.32 42.24 45.25 45.42 47.35 48.39 48.88 49.41 50.01 50.64 51.56 51.99 52.33 52.97 54.13
30.56 31.09 30.64 32.47 33.83 33.10 33.63 33.67 32.68 36.28 37.04 34.20 38.86 39.44 42.74 44.30 46.77 47.45 48.01 48.22 48.02 48.79 50.12 51.04 51.79 52.29 52.89
31.90 31.87 33.52 34.60 34.21 34.51 33.73 34.13 34.74 35.24 36.40 31.88 37.59 35.95 41.90 45.01 45.49 45.10 45.05 45.51 46.30 46.49 47.96 49.72 50.64 51.60 52.62
33.94 34.60 34.43 35.11 35.44 33.99 32.60 31.60 29.13 32.57 35.15 33.03 34.06 36.17 37.37 37.50 38.87 40.47 41.52 43.08 44.93 46.24 47.99 49.90 48.61 48.28 48.79
30.34 30.67 32.03 32.74 34.64 33.89 33.27 29.41 29.21 28.67 34.57 31.55 32.78 32.66 33.04 36.32 34.31 33.61 34.50 47.55 47.31 48.34 46.97 46.40 44.32 42.16 42.27
27.53 28.55 29.61 30.59 32.08 32.54 32.82 31.52 29.24 28.51 33.77 32.20 30.54 30.12 30.78 31.67 31.93 30.44 31.73 38.54 43.47 44.51 45.35 43.28 42.29 40.75 38.64
25.44 26.12 27.32 27.61 28.69 29.79 30.56 32.59 33.07 31.46 33.33 29.90 27.06 28.21 28.74 29.87 29.75 29.63 28.94 32.26 37.47 38.14 39.29 41.25 41.80 41.51 41.07
24.36 25.39 26.58 27.13 27.89 28.87 30.61 32.43 31.85 31.84 31.36 28.37 27.13 27.32 29.08 29.88 28.69 28.33 28.57 27.98 32.61 34.95 37.42 37.03 36.55 37.24 36.87
24.03 25.99 26.49 26.22 26.26 27.94 29.67 29.52 29.47 29.08 29.85 29.02 27.93 27.79 28.42 30.44 30.06 28.91 29.06 28.67 29.49 30.12 29.67 31.33 36.31 37.46 37.70
23.89 24.15 24.56 25.06 25.37 27.68 29.44 29.35 27.19 26.58 25.79 27.35 28.46 28.77 28.85 29.43 26.61 27.31 27.41 26.93 28.12 28.76 28.55 26.50 27.70 32.37 34.86
23.75 23.98 23.72 24.17 24.92 27.93 28.40 27.74 25.75 24.36 23.96 24.43 24.72 26.06 26.28 26.76 29.19 24.99 25.39 24.77 26.42 28.15 28.27 25.88 24.77 27.22 30.78
23.51 23.92 23.69 24.16 25.50 26.50 27.30 26.82 24.25 23.48 22.25 21.89 20.84 19.93 21.66 19.82 24.10 28.14 24.16 24.76 25.21 24.86 26.33 25.56 25.48 25.30 28.18

GFSFLT2_sfc_wetblb_012.txt.gz
Wetbulb
38.69 39.97 39.07 39.92 40.80 41.33 42.92 42.84 43.59 43.53 44.25 45.95 46.47 47.79 48.88 50.61 50.05 51.60 52.92 54.02 54.91 56.41 58.21 58.82 59.42 60.28 61.62
36.02 37.17 37.32 38.89 39.87 39.18 40.02 40.58 41.21 42.00 42.51 43.14 44.19 46.44 48.17 48.76 49.85 48.99 49.94 50.42 52.98 54.78 56.43 56.89 57.78 58.69 60.80
33.79 37.01 37.35 38.40 37.24 37.88 38.26 38.97 40.25 41.56 42.14 42.39 44.08 45.27 46.05 47.38 47.95 48.34 48.65 49.88 51.23 53.02 54.35 55.42 56.28 56.97 57.85
34.10 34.47 35.52 36.56 36.59 35.37 35.09 38.15 37.56 39.73 40.49 41.59 42.82 44.14 44.63 45.68 46.81 47.09 47.83 48.76 50.99 52.42 52.88 52.97 53.66 54.86 56.21
32.76 32.84 32.45 32.77 32.31 34.64 33.44 34.65 36.18 37.97 39.30 40.35 41.56 42.71 43.10 42.66 43.24 44.92 46.37 47.66 49.92 50.59 50.89 51.53 51.70 52.30 54.67
31.83 30.53 30.75 31.63 33.16 32.22 32.45 31.51 28.85 37.76 36.86 36.86 38.47 37.42 40.71 42.03 42.08 44.39 45.70 47.09 48.21 49.20 49.32 49.87 49.47 50.58 51.76
30.47 30.85 30.25 31.99 32.74 31.47 32.08 31.37 31.31 35.17 35.75 33.23 38.05 37.23 39.92 41.30 41.63 42.08 44.70 46.24 47.15 48.02 48.38 48.24 48.01 48.72 50.50
32.30 32.19 33.08 33.80 32.88 32.23 32.10 32.76 34.45 35.74 36.01 31.90 36.49 35.37 38.22 37.25 40.60 42.40 44.12 45.20 45.37 45.98 46.42 46.81 46.47 46.88 48.68
33.76 33.76 33.09 33.05 33.08 32.06 30.24 29.98 28.88 32.15 34.65 32.33 33.88 33.00 35.74 35.65 38.87 41.26 41.46 41.28 41.79 43.18 44.24 45.11 46.02 47.38 47.85
30.92 30.31 30.76 31.33 32.49 31.58 30.71 28.05 27.64 27.65 32.45 31.12 31.38 32.78 29.60 37.78 36.71 37.53 39.13 38.33 39.75 45.95 46.53 45.43 46.87 46.07 45.43
27.96 28.30 29.03 29.96 30.68 31.25 30.54 28.62 26.95 26.96 31.21 32.25 30.79 31.20 30.01 29.86 33.82 37.01 33.72 33.68 39.79 43.71 45.93 46.13 45.53 44.54 42.94
26.13 26.42 26.62 27.05 29.00 29.42 29.65 29.83 30.30 29.80 31.11 32.45 30.12 29.14 28.13 27.72 28.27 34.93 32.84 32.05 37.44 38.74 40.02 42.92 43.99 44.03 43.93
25.04 25.42 26.57 27.30 28.43 28.81 29.80 30.19 30.61 31.82 32.68 32.27 29.91 28.80 28.12 26.61 27.34 32.16 31.20 30.56 33.74 36.14 35.65 36.17 37.08 38.68 39.28
25.08 25.96 26.69 26.52 26.71 28.06 27.55 28.82 28.67 30.84 32.72 30.47 29.69 28.95 27.23 28.32 30.42 31.93 32.35 29.56 31.07 32.62 34.15 34.19 35.63 36.21 36.84
24.58 24.20 24.77 25.85 26.25 27.76 27.65 28.33 27.86 27.71 27.24 29.03 29.98 29.98 30.50 29.78 29.88 31.55 30.46 28.98 30.73 31.64 32.13 30.47 33.27 34.82 35.25
24.12 24.25 24.48 24.45 24.63 26.34 27.87 28.52 26.08 25.32 24.61 25.02 25.50 27.14 28.54 28.20 30.84 28.13 28.56 28.08 29.95 31.43 32.79 30.45 29.36 34.91 36.49
23.60 24.07 23.56 24.11 24.56 27.06 27.80 26.65 25.77 25.22 24.24 23.38 22.69 22.26 24.31 20.96 25.91 30.38 26.96 28.13 28.92 28.36 29.73 28.88 27.44 30.11 35.74

GFSFLT2_sfc_wetblb_015.txt.gz
Wetbulb
35.76 37.64 36.95 36.84 37.93 38.67 39.36 39.32 39.78 42.00 42.47 42.60 42.56 43.49 43.90 44.37 45.41 45.65 46.87 48.54 49.77 50.54 51.57 53.51 55.86 56.91 58.29
33.51 34.23 34.69 36.19 36.61 36.47 37.37 38.48 37.76 40.57 41.63 41.36 42.22 42.94 42.99 43.82 45.39 46.28 47.05 47.53 48.13 48.17 49.02 50.65 52.74 55.39 56.85
31.03 33.75 34.34 35.51 34.89 35.43 34.86 35.23 37.18 39.83 40.46 40.14 40.56 41.74 42.20 43.29 44.37 44.86 45.86 46.78 46.21 46.45 49.52 50.56 51.79 53.63 55.50
31.20 31.54 32.66 33.96 34.00 31.67 30.60 32.84 32.87 35.64 37.17 37.92 39.39 39.93 41.88 42.51 42.75 42.52 43.67 43.67 43.87 45.41 48.23 48.38 50.83 52.88 53.72
30.25 30.66 30.30 29.66 28.79 30.43 28.95 30.16 31.36 32.89 32.96 33.79 35.17 36.71 37.23 39.38 39.92 41.71 42.66 42.92 42.89 44.60 46.93 48.24 49.75 51.12 51.54
30.42 29.04 27.95 28.49 29.15 28.36 28.43 27.92 25.42 32.41 31.04 30.77 33.93 33.54 35.66 37.19 40.27 41.14 41.14 41.75 42.37 43.16 44.25 46.12 48.27 49.36 50.38
28.54 27.78 26.70 28.29 29.49 28.72 28.54 26.60 25.78 29.32 30.67 28.49 33.32 32.81 36.20 36.89 38.68 39.53 40.43 41.20 41.51 42.64 44.44 46.61 47.49 48.51 49.09
30.29 29.12 30.04 30.85 30.57 29.06 27.85 28.78 29.82 30.76 31.75 27.84 31.87 31.02 33.23 34.96 37.59 38.98 39.10 40.53 42.07 43.10 44.04 44.96 46.58 47.11 47.44
33.25 33.38 33.29 33.19 32.05 28.95 26.37 25.81 24.52 26.72 29.50 27.80 28.89 29.35 30.48 31.81 34.02 38.11 37.93 38.24 39.61 40.52 40.68 42.20 43.45 44.83 44.98
28.35 28.89 29.72 29.49 31.78 29.37 28.02 24.56 24.74 22.94 27.46 25.77 26.49 27.84 26.51 30.77 33.14 32.90 33.23 36.78 38.42 39.69 40.55 42.32 43.30 42.79 42.64
25.79 26.19 26.83 27.61 28.10 28.43 28.27 26.76 24.37 23.51 27.69 27.72 26.65 27.24 27.29 27.17 29.69 31.27 31.65 34.44 33.61 35.00 45.96 47.06 46.50 44.84 43.13
24.52 24.56 24.75 25.06 25.93 26.73 27.22 27.53 28.38 27.29 28.68 28.79 26.77 26.66 27.29 25.37 24.43 28.77 30.08 33.75 31.93 35.16 38.10 43.89 46.43 46.56 46.01
23.79 23.74 24.66 25.49 26.04 26.10 27.40 28.03 28.31 29.02 30.18 30.53 29.80 28.79 26.97 24.47 23.82 25.22 28.06 31.67 31.90 33.16 34.48 34.71 36.23 39.70 39.00
23.42 24.21 24.81 24.39 24.36 26.18 25.55 25.86 25.77 26.62 31.87 30.11 28.73 27.84 25.33 26.24 26.32 25.25 30.18 28.58 30.91 31.85 32.86 32.92 34.42 36.71 37.81
23.14 22.73 23.12 23.76 24.00 25.16 25.54 26.44 25.95 25.50 25.14 26.76 28.13 28.55 28.77 27.98 26.81 29.44 28.86 28.77 30.68 31.64 32.54 31.84 31.97 35.19 38.01
22.55 22.55 22.49 22.48 22.73 24.92 26.64 26.96 25.44 24.87 23.95 23.61 23.73 23.60 27.27 28.17 30.69 27.88 28.33 28.72 30.89 31.79 32.53 31.77 31.45 34.64 37.82
22.16 22.58 22.44 22.80 23.64 24.65 25.77 26.68 25.88 25.06 24.33 23.41 21.78 20.33 23.34 20.61 25.44 31.12 27.57 28.58 29.26 28.35 29.48 30.43 31.34 32.94 36.74

GFSFLT2_sfc_wetblb_018.txt.gz
Wetbulb
31.79 32.99 33.17 33.22 34.19 35.08 36.26 36.02 36.72 40.52 40.65 40.77 40.68 40.97 41.79 42.41 43.20 43.75 44.56 44.76 45.63 46.68 48.28 49.22 50.16 51.60 51.95
30.39 31.49 31.43 32.96 33.27 33.01 34.97 36.35 35.85 37.98 39.32 39.44 39.45 40.00 40.84 40.63 40.81 41.27 43.16 43.11 44.44 45.53 46.45 47.91 49.20 50.04 50.40
28.60 31.44 31.64 32.30 31.86 32.78 32.75 32.28 33.94 36.08 37.10 37.84 38.32 38.88 39.16 39.88 40.50 40.99 42.20 42.58 43.49 43.20 43.44 45.85 46.37 47.11 48.32
29.40 29.61 29.96 31.26 31.57 29.13 27.54 29.45 28.84 32.04 34.19 35.45 36.87 36.98 38.04 38.54 38.78 39.27 39.57 40.57 41.55 42.51 43.24 43.93 44.89 46.22 48.25
28.85 28.82 27.95 27.55 26.44 27.23 25.44 26.55 27.85 29.68 30.01 29.51 30.03 30.99 32.21 35.57 36.39 38.03 39.19 40.51 41.59 42.33 42.98 43.08 43.77 45.12 47.03
27.82 25.54 25.40 26.36 27.14 25.44 25.24 24.33 23.86 29.42 26.56 26.35 29.53 29.29 31.26 32.35 37.34 38.46 40.14 39.63 39.84 40.63 41.48 41.89 42.09 43.67 44.80
25.09 24.70 25.69 28.16 27.18 26.09 26.84 26.74 24.40 26.64 27.43 25.44 28.68 28.04 31.92 32.75 35.81 37.09 38.22 39.19 38.77 39.57 41.05 41.34 41.52 42.10 44.23
28.27 28.76 29.32 29.44 28.77 27.88 26.45 25.88 26.59 27.14 27.77 23.33 28.31 25.95 28.89 31.05 35.03 35.15 36.15 37.65 38.93 39.79 39.74 41.31 42.66 43.59 44.78
33.48 33.18 32.15 32.06 31.14 27.62 24.82 23.64 21.86 23.56 26.26 24.82 25.45 24.86 26.56 27.63 30.27 34.80 37.29 36.98 36.64 36.92 38.01 38.99 40.41 41.49 41.79
25.59 26.04 27.71 27.17 30.80 27.70 26.03 22.52 21.93 20.72 24.60 22.83 23.49 24.68 22.84 27.80 29.54 31.07 31.83 34.57 35.24 36.74 37.28 38.54 39.16 37.80 38.76
23.34 23.94 24.73 25.74 26.18 26.55 26.49 24.80 22.24 21.61 25.53 26.12 24.86 24.74 24.44 24.26 27.47 30.09 29.17 29.98 30.37 32.04 36.69 38.34 39.94 39.83 37.81
22.59 23.29 23.14 23.09 24.00 24.54 25.36 25.61 26.31 25.64 27.42 27.43 25.00 25.07 24.45 24.09 23.26 25.97 26.97 29.03 30.61 31.61 32.27 38.34 47.06 44.58 43.76
22.58 21.77 22.93 23.74 24.39 24.39 25.48 26.49 26.74 27.38 28.53 28.58 28.03 26.98 21.57 20.81 22.02 24.12 26.16 27.83 31.43 31.76 32.99 34.83 35.87 37.46 41.02
22.47 22.91 23.43 23.04 22.84 24.40 23.42 24.14 24.88 26.33 29.15 28.30 25.67 25.48 20.03 23.26 25.53 24.51 26.48 27.46 30.79 32.02 32.44 33.41 35.96 38.70 39.17
22.21 21.72 21.92 22.36 22.55 23.72 24.32 25.00 25.17 25.11 24.65 25.57 25.19 24.56 24.20 25.29 24.44 27.19 27.61 28.48 31.50 31.65 32.77 32.49 33.07 37.27 38.58
21.72 21.43 21.23 21.29 21.44 23.93 24.45 24.16 22.91 24.07 23.85 24.11 22.12 20.42 22.12 26.51 29.63 26.12 27.90 28.41 30.09 31.68 32.45 32.32 31.67 34.18 38.30
21.25 21.48 21.07 21.12 22.18 22.35 23.71 23.39 22.25 23.14 23.56 23.97 21.21 19.57 19.66 18.78 25.12 32.97 27.26 28.46 30.75 30.76 32.24 32.52 32.43 34.31 36.49

GFSFLT2_sfc_wetblb_021.txt.gz
Wetbulb
30.71 31.70 31.33 31.90 32.78 33.46 34.54 33.86 34.57 38.98 40.02 40.31 39.77 39.99 39.90 39.79 40.29 41.03 42.00 42.78 43.37 44.03 44.71 45.52 46.81 47.40 48.45
29.15 30.29 30.85 31.54 31.96 31.83 32.95 34.94 34.79 37.08 38.04 38.21 38.33 38.18 38.36 38.97 39.09 39.88 40.26 40.78 41.62 42.53 43.45 44.13 45.11 46.73 47.98
28.60 30.25 30.84 31.63 31.33 31.67 30.79 31.02 32.52 35.00 36.02 36.03 36.47 36.89 37.64 38.42 38.09 37.98 38.57 39.40 39.88 40.48 41.53 42.72 44.32 45.21 45.99
28.57 29.65 29.04 30.50 29.87 26.40 25.59 28.32 28.33 30.68 32.49 33.76 35.37 36.20 36.05 35.98 36.08 36.32 36.85 37.73 38.89 39.92 40.26 41.23 42.11 43.08 44.43
28.48 28.32 25.45 24.79 23.71 25.39 25.30 27.29 27.07 28.23 28.34 29.76 29.14 28.65 29.42 32.82 33.54 35.01 36.11 37.40 38.94 39.96 40.60 41.24 41.65 42.23 43.21
26.87 24.31 23.92 24.19 25.41 26.41 25.87 24.91 22.92 28.55 26.35 25.69 27.99 26.73 28.24 29.40 33.75 35.43 36.45 36.12 37.16 38.64 39.64 40.28 40.37 40.79 41.72
25.26 24.43 24.03 25.46 27.49 26.81 24.92 24.04 23.72 26.07 25.96 23.91 26.47 25.37 28.00 29.75 33.90 34.31 34.92 35.74 36.57 37.37 37.73 38.40 39.22 39.83 40.81
27.20 27.29 28.87 29.53 27.44 26.60 25.58 25.34 25.82 25.95 26.02 21.11 24.87 23.47 26.11 28.02 32.73 33.39 34.30 35.21 36.37 37.05 38.04 39.20 39.40 39.53 40.11
32.93 32.37 31.28 31.24 30.13 26.70 23.95 22.56 20.61 21.99 24.49 22.30 22.94 22.66 24.25 24.67 27.46 32.54 34.09 35.32 36.03 36.36 36.84 36.77 36.98 37.82 37.97
24.16 24.93 26.75 26.60 30.06 26.67 24.79 20.91 20.44 19.37 23.62 21.86 22.22 22.72 21.41 25.74 27.08 28.87 29.69 33.41 34.51 35.82 35.68 35.85 36.65 34.86 34.93
22.30 23.09 24.32 24.76 24.68 25.10 25.47 23.68 20.95 20.44 24.43 25.41 23.75 23.23 22.85 22.22 25.06 27.20 28.43 29.65 29.44 30.11 33.93 36.12 36.72 36.70 33.56
22.04 22.32 22.09 22.43 23.64 24.54 25.28 25.47 26.00 24.96 26.67 26.85 24.49 24.00 22.87 21.83 21.16 25.23 26.40 28.19 29.12 29.15 30.63 34.69 37.93 38.83 38.87
21.61 21.44 22.50 23.68 24.32 24.17 25.11 25.78 25.81 27.15 29.01 28.80 27.28 24.17 22.17 20.96 21.66 23.22 25.94 27.95 29.73 31.29 32.16 31.97 35.54 38.81 36.81
21.79 22.45 23.41 22.89 22.43 23.73 22.72 23.45 23.99 24.38 27.76 28.69 27.97 24.66 20.88 20.91 22.58 23.28 26.65 25.96 29.73 32.20 32.16 32.69 37.26 38.39 38.78
21.82 21.41 21.61 21.90 21.82 22.71 23.03 23.30 22.39 22.39 22.91 25.48 26.15 23.94 21.45 21.95 21.19 25.95 26.56 27.93 30.71 31.80 32.23 32.49 34.27 37.51 38.51
21.28 21.08 20.91 20.84 20.59 22.54 22.83 22.76 22.61 22.67 22.98 24.37 23.14 20.83 21.55 23.45 29.69 26.77 27.97 28.08 31.64 32.30 33.50 32.19 31.83 35.79 38.49
20.62 21.33 20.46 20.25 21.36 21.18 22.27 23.30 22.90 23.50 24.24 24.41 22.96 20.25 18.18 18.12 24.60 33.82 27.39 28.97 31.68 32.12 33.02 32.52 31.93 33.50 35.27

GFSFLT2_sfc_wetblb_024.txt.gz
Wetbulb
29.93 31.02 30.55 30.99 32.06 32.67 33.38 33.65 34.26 37.81 38.12 38.33 38.53 38.85 39.65 39.95 40.06 40.13 40.43 41.04 41.95 43.18 43.99 44.64 45.33 45.95 46.32
28.89 29.57 29.42 30.57 30.85 30.75 32.91 33.11 32.45 34.19 36.27 36.81 37.56 37.51 37.86 37.98 37.96 38.43 38.81 39.79 40.25 41.16 41.71 42.83 43.46 44.25 44.94
26.11 28.83 29.31 30.78 31.05 29.37 28.51 28.38 29.94 33.03 34.92 35.57 36.17 36.41 36.71 37.04 37.62 37.91 38.16 37.45 37.87 38.38 39.34 40.44 41.39 42.86 43.65
27.40 28.77 29.11 30.87 27.77 25.22 24.57 26.65 26.22 29.60 32.47 33.30 34.61 34.92 35.69 36.16 35.73 35.19 35.36 35.94 36.87 37.59 38.17 38.57 39.22 40.42 41.84
26.19 27.05 26.03 24.69 23.53 24.92 23.84 24.96 27.22 28.10 26.66 27.06 27.89 28.17 28.64 31.88 32.27 33.42 33.92 34.89 35.90 37.04 38.15 39.14 39.70 40.50 41.10
26.98 23.93 23.57 23.98 24.63 24.14 24.75 24.32 20.37 27.21 25.30 25.05 27.14 25.98 27.12 27.82 32.10 33.41 34.44 35.32 35.94 36.90 38.14 37.70 37.98 38.88 40.04
24.10 23.59 23.32 24.90 26.75 25.90 23.53 23.30 22.84 25.34 25.19 22.85 25.56 23.88 26.17 27.77 32.00 32.83 33.64 34.42 35.28 36.10 36.66 37.17 37.93 38.61 39.57
26.04 26.97 28.60 27.89 26.37 25.76 24.99 25.03 25.25 24.86 25.30 20.24 23.63 22.43 24.76 25.69 31.10 32.34 33.21 33.96 34.71 35.52 36.71 37.40 37.56 37.93 38.56
32.21 31.26 30.56 30.64 29.50 26.45 23.12 21.30 19.21 20.62 23.88 21.94 21.76 21.87 23.62 23.95 25.82 31.23 32.76 33.81 34.71 35.35 36.26 36.78 37.09 38.55 38.09
23.65 24.63 26.06 25.95 29.45 25.96 24.45 20.07 19.58 18.57 23.25 21.51 21.72 22.53 20.83 24.60 24.91 26.50 27.15 31.58 33.16 34.28 35.59 36.03 36.34 34.52 33.70
21.89 22.77 24.08 24.63 24.83 25.33 25.64 23.52 20.63 19.88 24.27 25.04 23.45 23.09 22.52 21.71 23.70 25.08 26.30 27.45 28.46 29.86 33.56 35.41 36.48 36.21 32.28
22.00 22.19 22.15 22.60 23.64 24.50 25.20 25.05 25.31 24.25 25.88 25.77 23.83 24.48 23.14 21.75 19.53 22.37 24.60 26.81 28.57 28.93 29.80 32.76 35.57 36.86 37.89
21.32 21.24 22.37 23.37 24.01 23.81 24.57 24.88 24.99 25.55 27.35 27.74 26.15 25.76 24.50 21.36 19.52 20.00 22.70 25.61 28.47 29.79 31.43 31.89 31.76 32.27 32.54
21.28 22.09 22.91 22.33 22.14 23.29 22.15 22.12 21.91 23.09 26.70 27.67 27.60 26.27 21.68 20.87 20.45 19.85 23.56 24.40 28.89 31.12 32.22 32.83 36.42 36.82 34.69
21.01 20.67 20.83 21.17 21.48 22.42 22.33 22.68 20.90 21.85 23.23 25.58 27.10 26.74 24.15 21.24 19.74 23.06 25.89 28.13 30.59 32.00 32.40 32.36 33.74 36.53 37.00
20.15 19.89 19.84 20.61 19.92 21.99 22.27 22.12 21.88 22.91 23.63 24.83 24.69 23.40 23.01 24.80 27.69 26.12 28.94 28.58 30.63 32.34 32.92 31.28 31.48 34.09 37.45
19.02 20.13 20.75 19.62 20.68 20.18 20.99 22.45 22.01 24.24 24.54 24.74 24.12 22.98 19.83 19.37 24.62 31.99 29.14 30.92 30.90 31.98 32.42 31.74 31.33 32.32 34.85

GFSFLT2_sfc_wetblb_027.txt.gz
Wetbulb
28.79 30.08 29.92 29.71 30.62 31.39 32.46 32.35 33.35 37.51 37.74 37.64 37.61 37.65 38.14 38.76 39.18 40.03 40.24 41.23 41.77 42.48 42.86 43.42 44.06 44.44 44.87
27.68 27.83 27.84 29.27 29.83 29.72 32.25 34.81 31.70 33.88 35.70 35.95 36.63 37.19 37.64 37.76 37.81 38.13 38.50 38.95 39.41 40.11 40.75 41.75 42.41 43.14 44.02
25.37 28.14 28.68 29.72 29.36 30.84 28.50 28.07 29.44 32.75 34.61 34.92 35.61 36.21 36.74 36.71 37.10 37.28 37.38 37.82 38.34 38.72 39.29 39.69 40.14 41.07 42.16
26.99 27.47 27.61 29.37 28.81 24.89 24.08 26.19 25.91 28.80 31.26 33.01 33.96 34.20 34.91 35.15 34.93 34.83 35.07 35.53 36.22 36.90 37.08 37.37 37.80 38.93 40.23
25.58 26.68 24.66 23.67 22.47 24.05 23.44 24.90 26.10 28.14 25.37 26.16 26.52 27.07 27.81 31.32 31.70 32.84 33.33 34.17 35.03 35.87 36.57 37.21 37.47 38.27 39.23
24.16 22.99 22.10 22.52 23.69 23.90 25.19 22.78 20.01 26.94 24.80 24.47 26.34 25.27 26.32 26.85 31.48 32.90 33.83 34.65 35.22 35.71 36.58 37.42 37.78 38.16 38.67
23.15 22.29 22.29 24.52 26.89 24.52 23.48 23.21 22.27 24.83 25.19 22.45 24.66 22.83 25.33 26.72 31.27 32.27 33.31 33.98 34.61 35.11 35.58 36.03 36.80 37.35 38.12
25.54 26.08 27.94 27.76 26.43 25.68 24.85 25.09 25.15 24.89 25.01 19.60 22.97 21.92 24.39 25.09 30.53 31.88 32.88 33.48 33.99 34.64 35.35 35.87 36.16 36.99 37.61
32.10 31.26 30.49 30.66 29.63 26.69 23.01 21.16 19.11 20.80 23.86 21.40 21.65 21.90 23.62 24.04 26.14 31.08 32.46 33.30 33.68 34.22 34.97 35.43 35.96 36.48 36.18
23.30 24.35 26.21 25.86 29.56 26.16 24.57 20.19 19.49 18.39 22.55 20.81 21.18 22.68 20.47 24.49 25.15 26.21 26.08 30.72 32.10 32.95 33.97 35.08 35.59 33.42 32.84
21.92 22.89 24.10 24.49 24.82 25.16 25.39 23.40 20.50 19.70 23.73 24.20 22.29 21.84 21.44 21.32 24.51 25.97 26.65 26.59 26.31 27.74 32.00 34.00 35.15 35.23 31.77
21.67 22.00 21.68 22.02 23.00 23.77 24.59 24.87 25.38 23.95 25.20 25.00 22.31 22.07 21.71 21.09 20.57 24.17 25.42 26.24 26.15 26.14 27.72 31.59 34.93 36.29 37.16
20.87 20.52 21.44 22.28 22.99 23.10 24.07 24.72 24.53 25.07 26.07 25.65 24.81 24.55 24.42 22.44 21.43 21.54 23.71 24.60 26.30 26.91 30.07 31.73 31.91 31.66 30.57
20.09 21.01 21.65 21.24 20.98 22.15 21.40 21.29 21.68 22.44 26.27 27.59 28.04 26.73 24.08 24.06 23.05 21.24 24.05 22.88 28.04 30.97 32.50 32.90 33.18 33.12 31.40
19.68 19.31 19.62 19.80 20.14 21.65 21.27 21.66 19.94 21.03 22.70 25.82 27.57 27.47 26.75 25.24 21.95 24.72 26.09 29.43 31.83 31.89 32.23 31.78 33.03 33.85 32.95
19.07 18.90 17.99 19.14 19.24 20.99 21.12 20.75 20.57 21.86 23.07 25.17 24.89 23.97 25.30 26.08 28.31 25.56 29.11 31.01 32.15 32.39 32.94 31.06 31.30 33.90 35.94
18.04 18.30 19.87 18.32 19.59 19.47 20.24 21.01 21.19 22.79 24.54 25.20 24.09 22.29 21.14 21.14 26.51 32.22 28.19 31.61 31.79 32.16 32.12 31.78 30.82 32.42 37.16

GFSFLT2_sfc_wetblb_030.txt.gz
Wetbulb
28.02 29.06 28.75 28.92 29.63 30.37 31.37 31.44 32.12 37.03 38.34 37.68 37.90 37.89 38.03 38.36 38.75 39.54 40.04 40.56 41.09 41.85 42.87 43.64 44.25 44.92 45.48
26.37 27.67 27.49 28.88 29.37 29.32 31.19 32.99 32.00 34.48 35.53 35.84 36.53 36.99 37.06 37.38 37.65 37.96 38.22 38.75 39.12 39.74 40.56 41.41 42.08 42.77 43.70
25.19 27.60 28.17 29.39 29.32 28.91 27.77 27.56 28.77 32.25 34.08 34.64 35.28 35.71 36.25 36.66 36.74 36.91 36.86 37.29 37.64 37.98 38.45 39.21 40.28 41.29 42.40
26.51 27.08 28.47 27.72 26.33 23.59 23.04 25.23 25.33 28.39 31.07 32.55 33.80 34.02 34.48 34.88 34.58 34.40 34.64 35.14 35.97 36.66 36.94 37.36 37.69 38.67 39.88
25.85 24.32 23.74 22.69 21.77 23.32 22.74 24.35 26.25 26.83 25.90 26.35 26.50 26.68 27.42 31.01 31.39 32.59 32.96 33.92 34.97 35.76 36.45 37.04 37.32 37.90 38.65
23.69 22.28 21.94 22.13 23.26 23.37 24.72 22.57 20.53 26.95 24.56 24.86 26.79 25.57 26.35 26.62 30.90 32.39 33.50 34.45 35.16 35.76 35.98 36.57 36.96 37.46 38.28
22.64 22.02 21.97 23.95 26.27 24.88 23.58 23.12 22.42 25.05 25.39 22.57 24.80 23.15 25.67 26.72 31.16 32.16 33.21 33.96 34.45 34.93 35.48 36.08 36.50 37.01 37.23
25.23 25.99 28.29 27.79 26.17 25.65 25.52 25.27 25.25 24.84 25.22 19.76 23.25 21.86 24.24 25.50 30.68 32.01 32.93 33.56 33.98 34.48 35.04 35.53 35.89 36.38 36.94
32.11 31.51 30.69 30.84 29.84 26.67 22.86 21.25 19.39 20.85 23.76 21.26 21.45 21.45 22.88 23.67 25.87 31.05 32.48 33.39 33.89 34.47 35.08 35.38 35.62 36.09 35.38
23.24 23.94 25.67 25.20 29.36 25.33 23.66 19.87 19.28 18.30 22.70 21.13 21.15 22.28 19.68 23.77 24.47 26.14 26.27 30.95 32.65 33.77 34.63 35.21 35.73 33.64 32.66
21.44 22.26 23.43 23.57 23.61 23.88 24.28 22.56 19.86 19.29 23.54 24.39 21.98 21.35 20.91 20.42 23.71 25.63 26.83 27.14 27.62 28.76 32.06 33.67 34.92 34.89 31.10
21.05 21.34 20.86 20.90 21.94 22.50 23.06 23.21 24.27 23.44 25.03 24.73 22.10 21.79 20.71 20.00 20.09 24.49 26.54 27.77 27.92 27.49 28.18 31.19 34.07 35.77 36.82
20.27 19.62 20.13 20.90 21.71 21.86 22.32 22.93 23.88 24.50 25.59 25.10 24.49 24.25 23.96 22.44 22.47 23.60 25.85 26.67 27.96 27.14 29.13 30.54 31.75 32.75 31.35
19.48 20.07 20.47 19.83 19.79 21.11 20.48 20.86 20.79 21.56 25.87 26.83 27.54 27.00 24.80 24.86 24.99 24.16 26.54 25.16 29.33 32.05 33.08 33.28 34.14 33.81 32.44
19.16 18.52 18.94 18.93 18.52 20.54 20.21 20.63 19.04 19.83 21.55 25.39 28.21 28.10 27.37 26.09 24.35 26.69 26.94 29.67 32.32 32.45 32.36 31.72 33.00 33.51 31.89
18.54 18.24 17.29 17.43 18.45 19.65 19.33 19.24 19.62 20.93 22.37 25.12 25.10 24.32 25.50 25.50 29.64 26.49 29.88 30.16 31.91 32.67 32.80 31.07 30.99 34.53 33.43
17.61 16.93 18.56 17.69 18.02 17.40 18.05 18.93 19.68 21.80 24.96 24.62 24.00 23.57 21.56 19.46 24.62 31.58 28.39 31.05 31.42 31.26 31.89 31.49 30.66 34.67 33.59

GFSFLT2_sfc_wetblb_033.txt.gz
Wetbulb
32.12 33.28 32.20 32.32 33.18 34.28 34.61 33.95 35.28 36.68 37.23 37.45 37.39 37.55 38.00 38.52 38.95 39.55 40.06 40.41 40.93 41.66 42.51 43.18 44.01 44.40 44.73
29.45 30.94 31.13 32.41 32.61 32.51 33.29 34.05 33.28 33.99 35.31 35.90 36.50 36.98 37.30 37.60 37.79 38.14 38.41 38.79 39.28 39.85 40.47 41.14 41.90 42.50 43.15
28.42 31.12 31.66 32.63 31.32 31.26 30.44 30.53 31.30 32.85 34.38 34.73 35.38 36.00 36.50 36.86 37.06 37.18 37.07 37.17 37.55 37.68 38.14 38.98 39.84 40.84 41.84
29.00 29.58 29.75 30.71 30.40 28.13 27.46 30.05 29.41 31.12 32.79 33.37 34.33 34.53 34.96 35.30 35.10 34.76 34.91 35.30 36.01 36.59 36.92 37.07 37.65 38.91 39.87
28.24 27.91 27.47 27.28 25.95 27.92 26.77 28.03 29.40 30.28 30.10 30.35 31.22 31.27 31.78 33.01 32.70 33.08 33.39 34.10 35.04 35.91 36.48 36.91 37.21 37.72 38.55
27.30 25.89 25.81 26.33 27.63 26.99 26.82 25.25 22.97 30.18 28.51 27.59 30.86 29.76 30.83 31.34 32.12 32.92 33.67 34.50 35.09 35.69 36.10 36.62 36.96 37.38 38.28
26.33 25.81 25.72 27.44 28.18 27.57 26.54 25.98 24.88 28.38 27.48 24.78 29.16 27.64 30.28 30.35 31.93 32.50 33.26 33.94 34.67 35.25 35.62 36.17 36.71 37.18 37.48
28.84 29.00 29.97 30.74 29.07 28.33 27.64 27.32 27.77 28.30 28.23 22.49 27.43 26.38 28.79 29.53 31.65 32.52 33.10 33.64 34.32 35.05 35.79 36.18 36.34 36.51 36.88
32.18 32.33 31.18 31.10 30.13 28.04 25.94 23.74 21.87 23.99 27.18 24.99 25.63 25.84 26.70 27.88 30.31 31.73 32.71 33.74 34.22 34.87 35.63 36.14 36.47 37.01 36.45
26.88 26.84 27.47 27.34 29.43 27.07 25.90 22.00 21.98 20.69 26.39 23.66 24.47 25.22 22.69 27.81 29.44 29.92 30.45 32.26 33.33 34.27 35.00 35.75 36.57 34.79 34.51
24.38 24.91 25.72 26.17 26.10 26.14 25.92 24.38 21.82 21.39 25.94 25.82 24.83 24.63 23.99 24.14 27.64 29.61 30.00 30.63 31.63 32.38 33.89 34.66 35.36 35.97 32.42
22.87 23.44 23.82 24.00 24.81 25.19 25.31 25.48 25.94 24.28 26.05 25.95 24.09 24.12 23.51 23.28 23.69 28.94 30.30 31.48 32.32 32.09 32.40 33.96 35.36 36.42 37.68
22.61 22.89 23.51 24.05 24.05 24.16 25.20 25.17 25.36 26.26 27.13 27.03 26.20 26.12 26.19 25.08 25.40 27.38 28.51 30.60 31.80 32.26 33.59 33.18 32.90 33.43 31.87
22.02 22.87 23.60 23.12 22.82 23.96 22.23 23.07 22.78 23.98 27.86 28.99 29.35 29.24 27.79 28.24 28.02 27.49 29.20 28.26 32.30 33.13 33.15 33.50 34.30 34.74 33.87
21.64 21.28 21.44 21.90 21.48 23.09 22.64 22.72 20.66 21.75 23.37 27.36 30.33 30.77 30.26 29.11 27.08 29.36 29.56 30.47 32.41 32.18 32.51 32.05 33.46 34.61 33.36
20.77 20.57 20.18 19.83 20.47 22.36 22.39 21.32 20.69 21.95 23.23 26.68 28.21 27.55 28.79 31.38 32.81 29.53 30.57 30.62 32.10 32.61 33.00 31.18 31.70 33.07 34.72
20.16 19.78 20.21 21.11 20.13 19.88 20.66 21.24 21.29 22.73 25.42 28.13 27.06 26.61 23.53 23.94 30.71 32.38 29.78 30.46 31.15 31.46 32.38 31.51 31.09 33.90 35.15

GFSFLT2_sfc_wetblb_036.txt.gz
Wetbulb
34.25 35.42 34.60 34.66 35.55 36.66 36.63 35.74 36.59 37.31 37.65 37.60 37.62 37.83 38.45 38.94 39.37 39.90 40.24 41.03 41.77 42.43 42.80 43.32 43.85 44.00 44.44
32.35 32.93 33.43 34.87 34.70 33.56 34.96 35.10 34.86 35.56 36.61 36.97 37.31 37.57 37.79 38.05 38.33 38.86 38.97 39.47 39.75 40.45 41.20 41.53 42.17 42.81 43.40
31.02 33.71 34.56 34.24 33.66 33.94 33.19 33.41 34.30 35.17 36.23 36.43 36.81 37.15 37.38 37.63 37.79 37.92 37.81 37.96 38.03 38.30 38.74 39.35 40.09 40.96 41.69
31.68 32.20 32.78 33.69 33.33 31.34 29.77 32.35 32.21 33.35 34.86 35.05 35.82 35.96 36.44 36.71 36.57 36.07 36.11 36.29 36.85 37.28 37.54 37.74 38.03 38.95 39.95
30.70 31.27 30.70 30.58 29.02 30.45 29.56 30.84 31.72 32.09 32.68 32.95 33.88 33.97 34.40 35.34 34.91 35.07 35.17 35.58 36.05 36.53 36.99 37.31 37.67 38.12 38.72
30.13 28.20 28.08 29.04 30.14 29.45 28.66 28.48 25.24 32.68 30.65 30.08 33.28 31.89 33.24 34.31 34.66 35.08 35.36 35.61 35.88 36.18 36.41 36.88 37.15 37.69 38.50
28.58 28.02 27.82 29.45 29.57 29.50 28.86 27.74 27.05 30.43 29.88 27.52 31.49 30.62 33.19 33.29 34.09 34.71 35.13 35.52 35.88 36.25 36.53 36.78 37.09 37.46 37.92
30.35 30.08 31.27 32.04 31.25 29.60 28.95 28.52 29.54 30.64 30.50 25.31 30.16 29.01 32.12 33.01 33.82 34.49 34.94 35.26 35.58 36.11 36.71 37.20 37.37 37.69 37.95
32.58 33.62 33.75 32.68 31.66 29.05 27.58 25.89 24.50 26.35 29.67 27.40 28.16 28.17 29.12 30.08 32.69 34.21 35.02 35.54 35.58 36.22 36.74 37.20 37.69 37.84 36.97
30.86 30.39 30.49 30.15 31.25 29.53 28.63 25.14 24.45 22.99 28.53 25.92 26.51 26.37 24.20 29.83 32.22 32.50 33.64 34.73 35.65 36.14 36.93 37.31 37.70 35.59 34.88
27.74 27.98 28.57 28.97 29.32 29.44 28.59 27.01 24.46 23.92 28.05 27.33 25.92 25.84 25.38 26.04 29.35 31.97 32.72 33.41 34.48 35.07 36.25 36.75 37.04 37.05 34.05
25.58 25.40 26.44 27.26 28.01 28.23 27.93 27.50 27.54 25.99 27.67 27.06 24.80 25.38 25.01 24.84 24.83 30.45 32.02 33.43 34.38 33.95 34.32 36.34 38.16 38.53 38.58
24.16 25.46 26.57 27.44 27.10 26.93 28.22 28.40 27.69 28.22 28.86 28.51 27.77 27.71 27.23 25.42 25.68 28.27 29.59 31.95 33.86 33.62 34.03 33.96 33.35 34.02 32.57
24.45 25.43 26.33 26.40 25.93 27.14 25.30 25.08 24.96 26.31 29.43 30.09 30.20 29.62 28.17 29.25 28.66 27.27 30.41 29.55 33.41 33.78 33.84 33.58 34.88 35.41 35.07
24.23 23.88 23.97 24.91 24.83 26.00 25.27 25.45 23.50 23.11 24.89 29.11 30.78 31.43 31.85 30.18 27.95 30.52 31.67 31.63 32.76 32.70 32.59 32.24 33.65 35.11 35.21
23.38 23.50 23.24 22.78 23.23 25.26 25.59 24.02 23.14 23.49 24.60 27.62 29.08 29.16 29.66 31.78 34.76 32.09 31.53 31.21 32.27 32.64 33.65 31.35 32.29 33.69 36.58
23.58 23.15 23.57 24.04 23.14 23.22 23.91 24.32 24.08 25.35 26.42 29.02 28.53 27.88 24.98 23.83 31.05 35.08 30.76 31.59 31.62 31.54 33.04 31.88 31.51 32.96 34.99

GFSFLT2_sfc_wetblb_039.txt.gz
Wetbulb
33.83 35.25 34.42 33.96 35.08 36.01 36.61 35.31 35.38 38.68 38.89 38.92 38.93 39.22 39.66 39.91 40.18 40.35 40.84 41.56 41.99 42.78 43.55 43.99 44.32 44.43 44.77
32.07 32.37 32.64 34.24 34.21 34.21 34.90 35.82 34.29 36.68 38.14 38.45 38.79 38.97 39.03 39.26 39.29 39.51 39.69 40.01 40.34 41.06 41.61 42.22 42.68 43.33 43.77
29.50 32.27 32.53 33.49 33.29 33.91 33.21 33.36 34.21 36.11 37.26 37.57 37.90 38.24 38.41 38.65 38.77 38.94 38.83 38.97 39.16 39.23 39.68 39.99 40.60 41.34 42.26
29.26 29.61 31.00 33.03 32.43 30.02 29.16 31.14 30.74 33.19 34.91 35.92 36.64 37.02 37.65 37.83 37.56 37.31 37.34 37.70 38.27 38.57 38.70 38.59 38.70 39.48 40.34
28.58 29.27 29.65 28.65 27.66 29.04 27.95 28.84 29.25 31.37 30.14 30.82 31.88 31.56 32.32 35.10 35.03 35.77 36.41 37.30 37.68 38.19 38.52 38.85 38.66 38.95 39.68
29.17 27.86 27.77 28.01 28.54 27.64 26.68 26.23 25.35 30.70 28.92 27.86 30.49 29.75 31.07 31.73 35.52 36.37 36.60 37.00 37.48 37.91 38.27 38.62 38.78 38.93 39.23
28.63 27.86 27.11 28.05 27.73 26.93 27.99 26.87 25.11 27.88 27.95 25.86 29.49 27.97 30.56 31.82 35.03 36.03 36.35 36.73 37.36 37.78 38.06 38.49 38.83 39.19 39.27
30.33 29.54 29.38 30.26 30.63 31.07 28.28 27.14 27.55 28.42 29.41 23.81 27.60 26.20 29.35 30.57 34.16 35.04 35.91 36.66 37.06 37.60 38.14 38.40 38.54 39.09 39.71
33.09 33.44 34.33 34.48 32.80 29.17 25.82 25.07 23.22 24.71 27.68 25.06 25.93 26.34 26.86 27.08 29.81 34.47 35.49 36.22 36.44 37.33 38.01 38.34 38.50 39.14 38.60
29.23 30.14 30.81 29.89 32.32 29.54 27.97 24.89 23.41 21.85 26.04 24.71 24.50 25.07 21.97 26.80 28.52 29.06 30.04 33.92 35.71 36.40 37.45 37.91 38.39 36.56 35.94
26.93 27.05 27.33 27.41 28.11 28.88 28.45 26.71 23.97 22.43 26.24 25.92 23.92 23.34 23.17 22.79 25.62 27.84 28.51 29.86 30.99 32.15 36.13 37.29 37.92 37.64 34.68
24.93 24.61 24.97 25.78 27.02 27.43 27.29 27.02 27.12 25.67 27.10 27.03 23.85 23.32 22.55 21.85 21.65 26.23 28.00 29.95 31.11 31.28 32.17 35.47 37.52 38.07 38.55
23.71 24.28 25.57 26.41 26.55 26.45 27.32 27.77 27.47 26.95 27.06 26.60 26.37 26.29 25.73 23.70 23.32 24.99 27.37 29.43 30.85 31.40 33.49 33.17 33.17 33.73 33.04
23.73 24.72 25.61 24.78 24.17 25.21 24.45 24.60 23.80 23.79 26.56 26.87 28.11 28.28 26.42 26.55 26.74 26.50 28.43 26.50 30.87 32.71 32.98 33.06 33.30 34.43 34.67
24.13 23.46 22.88 23.24 23.11 24.21 23.96 24.20 23.00 22.24 23.22 25.78 27.99 28.85 28.90 28.61 26.93 27.28 28.00 29.61 32.06 31.94 31.81 30.90 32.11 33.69 34.56
23.15 22.80 22.54 22.10 22.19 23.50 24.16 22.91 22.31 22.81 23.74 25.45 26.60 27.18 27.47 29.60 32.81 28.72 28.63 29.08 30.96 31.44 31.73 30.33 30.19 32.49 34.68
22.98 22.15 22.15 22.73 22.67 21.41 22.13 22.52 22.41 23.08 24.06 26.05 26.72 25.82 23.98 22.32 27.98 33.67 28.55 28.51 29.09 30.40 31.42 30.85 30.42 31.59 33.83

GFSFLT2_sfc_wetblb_042.txt.gz
Wetbulb
30.01 31.09 28.90 29.45 32.48 32.74 33.72 33.40 34.15 38.92 39.53 39.72 39.71 39.96 40.38 40.81 40.86 41.12 41.54 41.91 42.54 43.12 43.89 44.48 44.86 44.95 45.11
29.01 29.39 28.24 30.14 30.21 30.97 32.98 35.19 33.77 36.63 38.58 38.73 39.04 39.09 39.40 39.75 39.88 40.30 40.33 40.57 40.92 41.36 41.91 42.67 43.13 43.55 44.25
26.79 29.13 29.20 29.97 29.99 31.34 31.82 31.14 32.51 35.58 36.80 37.16 37.58 38.35 38.78 38.72 39.25 39.45 39.23 39.25 39.63 39.78 40.10 40.65 41.32 42.02 42.78
26.62 27.05 28.40 30.12 30.11 27.95 26.93 28.51 28.03 31.48 33.23 34.70 36.66 36.47 37.17 37.47 37.27 37.10 37.18 37.71 38.44 39.03 39.41 39.46 39.69 40.48 41.44
27.00 27.84 27.92 27.26 26.28 27.36 25.67 26.48 27.18 28.33 28.89 28.86 29.20 29.50 29.99 33.61 34.20 35.40 36.14 37.77 38.36 38.80 39.24 39.68 39.70 40.25 40.97
27.40 26.97 26.44 26.43 26.32 25.56 24.72 23.45 22.87 29.46 24.97 26.22 28.23 27.22 28.82 29.92 34.33 35.98 36.57 37.22 37.77 38.35 38.90 39.31 39.71 40.27 40.81
27.19 26.12 25.49 26.59 23.94 24.17 25.52 26.82 26.49 27.15 26.19 24.12 27.46 26.35 28.58 30.00 33.70 35.14 36.12 36.51 37.33 37.68 38.35 38.98 39.24 39.64 40.09
28.42 27.68 27.82 28.60 29.58 30.65 29.28 26.50 26.47 27.02 26.65 22.61 26.24 25.06 27.12 28.17 33.28 34.09 35.10 36.04 36.96 37.38 37.85 38.12 38.62 39.21 39.82
32.95 33.37 33.86 34.10 32.78 28.72 25.05 23.51 22.61 23.98 26.15 24.09 23.87 24.08 25.14 25.45 27.37 32.74 34.31 35.06 34.95 35.84 36.77 37.41 37.81 38.77 38.11
27.01 27.75 28.85 26.84 31.28 26.86 25.62 23.16 22.35 21.23 23.56 22.78 23.02 23.51 20.47 22.96 23.99 26.86 27.37 31.46 33.42 34.52 35.70 36.32 37.10 35.43 35.54
24.40 24.38 24.92 25.04 25.62 26.17 27.58 25.98 22.98 21.45 25.22 25.42 23.37 22.86 22.54 20.87 23.07 25.26 26.46 27.07 27.63 29.34 33.33 35.50 36.43 36.62 34.31
23.03 22.71 22.96 23.47 24.54 25.43 26.03 25.72 26.08 25.30 26.37 26.78 24.15 23.21 21.89 20.62 20.39 24.80 26.66 27.33 27.55 28.28 29.74 33.06 35.75 37.17 37.78
21.92 22.56 23.09 23.76 24.20 23.96 24.29 24.36 24.03 25.14 26.61 25.62 24.54 24.28 24.18 22.47 21.97 23.51 25.16 26.97 28.65 28.55 29.05 31.03 32.05 33.41 31.78
21.93 23.19 23.97 23.48 22.22 22.71 22.30 22.38 22.22 22.02 25.39 25.36 24.69 25.71 24.38 24.72 25.19 24.72 26.65 25.27 29.23 29.35 30.67 32.34 32.80 33.16 32.83
22.29 22.48 22.29 21.81 21.69 22.32 21.96 22.21 21.24 21.34 22.06 24.55 27.11 27.88 26.72 25.72 24.34 25.42 26.53 27.55 28.94 28.71 29.40 29.82 30.80 32.31 32.69
22.23 21.87 21.28 21.06 20.64 21.79 22.89 20.81 20.31 21.37 22.35 23.72 24.28 24.42 25.16 26.60 31.24 27.79 28.37 27.40 28.09 28.79 29.50 28.22 29.54 32.23 33.32
21.29 20.77 20.95 21.32 22.07 20.05 20.36 21.00 20.49 20.95 21.69 23.16 24.66 24.24 21.65 20.70 27.22 33.36 27.82 27.58 28.22 28.41 29.78 29.65 29.29 31.17 32.44

GFSFLT2_sfc_wetblb_045.txt.gz
Wetbulb
27.09 28.41 27.19 27.90 30.08 30.98 31.99 31.66 32.70 38.03 39.08 39.21 39.50 39.79 40.07 40.39 40.50 41.03 41.51 42.05 42.69 43.59 44.13 44.55 44.80 45.00 45.35
27.11 27.04 26.95 27.65 28.96 28.79 31.18 33.36 32.74 36.27 37.56 38.09 38.21 38.42 38.76 39.10 39.71 40.02 40.00 40.54 40.94 41.49 42.05 42.29 43.15 43.66 44.38
25.98 28.39 27.69 28.89 28.65 29.68 30.19 30.76 31.82 34.81 35.98 36.37 37.00 37.34 38.12 38.61 38.35 38.67 38.51 38.64 39.03 39.27 39.70 40.45 41.27 42.10 42.82
26.11 25.98 27.33 28.96 28.73 27.15 26.63 28.67 27.65 30.43 32.43 33.81 35.48 36.39 36.39 36.47 36.40 36.23 36.29 36.95 37.93 38.62 39.36 39.77 40.32 41.19 42.13
25.25 25.57 26.46 26.67 25.56 26.60 25.44 26.22 26.82 27.74 27.10 27.98 28.39 28.90 29.22 32.41 32.88 34.21 35.29 36.99 37.82 38.35 38.94 39.83 39.97 40.76 41.55
26.52 25.58 25.47 25.16 25.66 25.52 24.82 23.36 22.34 28.87 27.27 26.81 28.11 26.88 27.75 28.34 33.16 35.11 35.84 36.16 37.07 37.73 38.06 38.97 39.40 39.85 40.54
26.30 25.64 25.23 25.73 25.08 23.55 24.99 26.04 26.26 27.69 26.33 24.74 27.03 25.38 27.53 29.07 33.02 33.99 34.99 35.76 36.28 36.79 37.57 38.44 38.80 39.35 39.79
28.04 27.30 27.06 28.48 29.64 29.55 27.75 25.74 25.84 26.29 26.10 22.08 25.64 24.46 26.40 26.93 32.06 33.22 34.17 34.85 35.71 36.50 36.66 36.89 37.29 37.92 38.76
33.19 33.39 33.48 33.31 31.74 27.98 23.56 22.13 20.65 22.38 25.45 23.43 23.00 22.89 24.11 24.44 26.44 31.72 32.94 33.78 33.90 34.56 35.24 35.97 36.42 37.14 36.78
25.41 26.32 27.40 25.99 30.38 26.00 24.41 21.57 20.94 20.83 23.31 22.30 22.28 22.76 20.17 21.79 23.26 24.87 25.48 30.08 32.04 33.29 34.18 34.84 35.37 33.50 33.55
23.25 23.49 24.19 24.31 25.04 25.32 25.15 24.40 22.36 21.30 25.07 25.27 23.25 22.65 22.49 21.20 23.12 24.51 24.99 25.53 26.01 27.80 31.78 33.26 34.29 35.00 32.70
22.18 21.91 22.43 22.91 23.70 24.28 24.90 24.57 24.63 23.88 25.06 24.97 22.61 22.40 21.62 20.01 19.27 23.10 24.50 25.75 26.00 25.62 26.74 30.81 33.85 35.11 35.84
21.06 21.67 22.16 22.96 23.59 23.54 23.40 22.98 22.47 23.92 25.56 24.77 23.74 23.10 22.52 20.48 20.14 21.55 23.33 24.90 26.90 26.76 26.24 28.76 29.23 30.58 30.34
21.07 22.05 22.82 22.50 21.88 22.12 20.83 21.19 20.73 21.00 24.27 23.55 23.79 23.62 22.19 22.81 23.21 22.93 24.93 23.39 26.49 27.72 29.16 29.83 30.31 30.98 31.59
20.61 21.33 21.54 21.44 21.40 22.40 21.03 20.26 19.53 19.59 19.54 22.33 24.15 24.41 24.44 24.20 22.65 23.72 24.09 24.85 27.05 28.32 28.89 28.16 29.44 30.49 30.38
20.74 20.64 19.96 19.87 19.90 21.22 22.55 20.94 18.86 19.14 19.87 21.06 21.50 21.82 22.73 24.78 28.81 24.48 25.65 26.38 27.55 27.95 28.83 27.13 27.27 29.62 31.53
19.91 19.73 19.85 19.69 21.40 20.08 19.94 20.12 19.51 19.71 20.12 21.08 22.43 23.02 20.16 18.93 26.20 32.93 27.90 28.11 27.85 27.73 27.79 28.13 27.90 29.64 31.48

GFSFLT2_sfc_wetblb_048.txt.gz
Wetbulb
25.70 27.14 26.28 26.89 28.91 29.03 30.64 30.15 31.02 36.76 38.10 38.69 38.96 39.24 39.73 39.84 40.20 40.70 41.18 41.89 42.97 43.29 43.98 44.62 45.20 45.46 45.54
24.77 25.36 25.40 26.96 26.96 27.17 30.11 32.06 31.30 35.10 37.22 37.74 38.01 38.04 38.40 38.81 39.13 39.76 39.87 40.14 40.61 41.14 41.62 42.12 42.83 43.34 44.14
25.02 25.71 25.99 26.27 27.45 27.68 28.34 29.35 31.27 34.35 35.68 35.91 36.66 37.07 37.58 38.18 38.68 38.20 38.04 38.20 38.73 39.01 39.43 40.07 40.97 41.86 42.92
25.08 23.94 24.61 26.92 26.93 25.37 25.71 27.38 26.93 29.81 32.13 33.43 35.28 35.83 36.57 36.87 36.45 35.96 35.88 36.53 37.42 38.20 38.64 39.12 39.86 41.10 42.01
24.57 20.68 23.69 25.49 24.77 25.72 24.45 25.37 26.32 27.47 27.05 27.09 27.74 27.52 29.34 32.50 32.78 33.88 34.45 35.94 37.37 38.17 38.34 38.77 39.09 40.09 40.95
18.25 24.85 25.07 24.85 25.65 24.65 23.97 22.78 21.98 27.78 25.44 26.98 27.75 26.72 27.70 28.04 32.51 34.30 35.42 36.10 36.53 37.14 37.50 38.15 38.61 39.36 40.32
26.49 25.36 24.87 25.82 25.31 23.47 24.29 25.09 24.87 26.66 25.58 23.34 25.96 24.53 26.96 28.46 32.75 33.77 34.66 35.31 35.76 36.27 36.72 37.27 38.14 39.04 39.40
27.69 27.58 27.34 27.97 29.20 28.81 26.31 24.86 25.17 25.54 25.28 20.59 24.35 23.50 25.88 26.53 31.66 32.93 33.77 34.52 35.10 35.73 36.31 36.48 36.35 36.86 37.51
33.47 33.54 33.57 33.41 31.67 26.88 22.56 21.81 20.03 21.79 24.62 22.37 22.07 22.34 23.89 24.26 26.11 31.51 32.72 33.61 33.98 34.50 34.85 35.24 35.46 35.92 35.29
24.15 24.86 26.72 25.27 30.23 25.67 22.69 20.04 19.96 19.49 22.23 19.34 21.88 22.50 19.56 21.51 23.29 24.26 25.48 30.02 31.69 32.77 33.67 34.24 34.69 32.09 31.85
22.38 22.56 23.37 23.49 24.44 24.76 24.62 22.47 21.21 20.51 24.41 24.83 22.16 21.57 21.64 20.30 21.66 24.22 24.55 25.01 24.93 26.33 30.52 32.20 33.26 33.36 30.53
21.39 21.17 21.64 22.12 22.79 23.55 24.26 23.94 24.06 23.27 24.28 24.19 21.19 20.15 20.07 18.99 18.54 22.43 23.49 24.31 24.52 24.26 24.87 29.16 32.41 34.03 34.76
20.25 20.95 21.42 21.85 22.45 22.72 23.02 22.75 21.42 23.07 24.40 23.79 23.06 22.43 21.57 19.73 19.08 20.65 22.24 23.67 25.15 24.90 25.56 25.14 27.74 29.10 28.34
20.24 21.34 22.37 22.74 21.31 21.58 20.79 20.96 20.31 20.30 23.83 23.99 22.54 21.32 20.30 21.06 21.66 21.08 22.81 22.19 25.06 25.84 25.92 27.10 29.10 30.27 30.22
20.16 20.80 21.09 20.77 20.29 20.87 20.09 19.85 18.84 18.88 19.80 21.61 22.79 22.47 22.37 22.22 20.80 22.10 22.93 23.17 24.38 25.01 26.42 26.56 28.15 29.06 29.46
20.38 19.83 19.23 18.93 19.23 20.61 21.51 20.37 18.66 18.67 19.07 20.29 20.63 20.59 21.25 23.25 27.19 22.26 23.27 24.16 26.06 27.21 28.10 26.49 26.94 29.54 30.41
18.54 18.44 18.90 19.03 21.20 19.54 19.45 19.72 19.13 19.31 19.71 20.74 21.12 21.74 19.58 17.87 24.86 31.20 26.51 27.89 28.13 27.32 27.35 27.18 26.57 28.36 30.41

GFSFLT2_sfc_wetblb_051.txt.gz
Wetbulb
25.36 26.12 25.53 26.35 28.29 28.38 29.66 28.79 29.67 36.06 37.51 38.12 38.52 39.19 39.70 39.89 40.13 40.57 40.88 41.58 42.50 43.58 44.14 44.81 44.90 45.24 45.53
23.59 24.54 24.93 26.34 26.57 26.09 29.32 31.31 30.24 34.17 36.63 37.31 37.79 37.98 38.36 38.86 39.05 39.43 39.86 40.61 41.25 40.96 41.58 42.23 43.02 43.34 43.99
23.83 24.75 25.14 25.82 25.39 26.44 27.08 27.92 29.88 33.68 35.02 35.44 36.27 36.93 37.50 38.17 38.48 38.54 38.52 38.67 38.83 38.89 39.32 40.05 40.77 41.42 42.31
25.04 23.58 24.47 25.69 25.41 25.20 24.98 26.42 26.33 29.07 31.52 33.16 34.97 35.74 36.39 36.67 36.62 36.26 36.20 36.62 37.39 38.06 38.31 38.67 39.30 40.10 41.35
24.01 21.79 22.93 24.91 24.72 25.78 24.41 25.38 25.59 26.73 26.58 26.10 26.50 27.59 28.74 32.27 32.72 33.85 34.37 35.74 36.87 37.64 38.24 38.86 39.08 39.47 40.20
19.29 22.83 25.33 24.48 25.47 24.78 24.25 22.88 22.50 25.74 24.21 25.80 27.10 26.05 26.96 27.27 32.16 34.05 35.34 36.06 36.51 36.93 37.16 37.90 38.11 38.56 39.16
25.71 24.64 24.63 26.10 25.79 24.84 25.10 24.49 24.71 25.99 25.33 22.88 25.34 24.00 26.20 27.46 32.30 33.62 34.74 35.33 35.84 36.22 36.38 36.98 37.52 37.96 38.57
26.87 27.25 27.64 28.40 28.44 28.19 26.32 24.30 24.82 25.35 24.34 19.91 23.23 23.07 25.44 26.06 31.63 33.02 34.06 34.72 35.22 35.70 36.12 36.52 36.64 36.83 37.17
33.08 33.38 33.49 33.30 31.76 26.62 22.29 21.37 19.95 21.54 24.03 21.85 21.23 22.10 23.77 24.26 26.08 31.59 33.01 33.68 34.32 34.66 34.85 35.11 35.44 35.94 34.83
23.66 24.36 26.46 24.54 29.80 25.18 21.80 18.24 20.57 19.59 21.82 19.77 21.46 20.92 19.30 21.50 21.30 24.16 25.39 30.01 31.81 32.81 33.57 34.05 34.23 31.60 30.96
21.69 21.93 22.75 22.96 23.92 24.28 24.27 19.25 20.82 20.38 24.50 24.79 21.86 21.23 21.06 19.64 21.01 23.22 23.90 24.43 24.57 26.04 30.09 31.41 32.39 32.37 29.58
20.82 20.63 21.07 21.69 22.31 22.77 23.51 23.17 23.78 22.91 23.83 24.30 20.92 18.66 19.04 18.01 17.80 21.83 22.91 23.72 23.90 23.49 23.95 27.79 31.09 32.96 34.25
19.80 20.41 21.01 21.29 21.70 21.66 21.88 22.01 21.25 22.46 24.03 23.02 22.27 21.64 21.03 18.90 18.42 19.84 21.28 22.87 24.09 23.51 23.95 23.90 23.93 25.06 25.39
19.81 20.81 21.75 20.99 20.95 21.03 19.84 20.13 20.01 19.71 22.45 22.54 21.85 21.53 20.10 20.45 20.53 19.76 21.38 20.44 22.16 23.94 24.76 25.46 26.27 27.74 27.81
19.98 20.54 20.78 20.37 19.81 20.07 19.18 19.03 17.83 18.05 19.18 21.40 22.34 22.13 21.67 21.18 19.50 20.66 21.07 21.46 23.31 23.91 24.36 24.34 26.19 28.11 29.07
18.95 18.70 18.41 18.34 18.41 20.06 21.04 19.19 18.11 18.31 18.57 20.05 20.47 20.59 20.98 22.87 26.13 20.89 21.74 22.13 23.77 25.41 26.96 25.68 26.32 29.12 30.23
17.16 16.98 18.06 18.29 21.04 18.57 18.68 19.36 19.01 19.39 20.39 21.48 21.13 21.53 19.75 18.06 24.84 30.76 25.51 26.36 27.16 27.27 27.53 26.86 26.21 27.62 28.64

GFSFLT2_sfc_wetblb_054.txt.gz
Wetbulb
26.07 27.51 26.16 26.14 27.80 27.92 29.06 27.89 28.60 35.86 37.40 37.79 38.17 38.90 39.45 39.87 40.22 40.71 41.13 41.71 42.44 43.12 43.95 44.75 45.56 45.41 45.43
25.02 24.83 24.56 26.28 25.90 25.53 29.03 31.15 29.90 33.79 36.33 37.27 37.60 37.92 38.38 38.82 39.17 39.47 39.92 40.51 40.81 41.19 41.78 42.63 43.06 43.45 44.24
24.09 25.41 25.06 25.59 25.67 25.88 26.11 27.27 29.31 33.29 35.00 35.39 36.09 36.75 37.41 38.01 38.57 38.57 38.47 38.75 39.02 39.32 39.58 40.05 40.70 41.61 42.57
24.63 23.18 24.43 25.67 24.59 24.92 24.94 26.19 26.38 29.09 31.50 32.81 34.61 35.38 36.25 36.65 36.65 36.35 36.32 36.74 37.48 38.17 38.36 38.61 39.03 40.01 41.09
23.94 22.19 23.01 24.61 25.16 26.43 24.59 25.49 25.78 26.41 26.21 26.14 26.37 26.73 28.41 32.22 32.57 33.74 34.22 35.62 36.81 37.80 38.33 38.71 38.92 39.53 40.29
18.69 23.38 24.42 25.17 23.87 24.65 24.22 24.03 22.77 25.86 23.56 25.60 26.94 26.08 27.03 27.10 31.71 33.80 35.25 36.11 36.58 37.20 37.35 37.77 38.16 38.55 39.14
25.83 24.70 24.00 25.29 23.85 23.19 24.82 24.67 24.47 26.68 24.80 22.75 25.17 24.17 26.31 27.28 32.17 33.66 34.90 35.51 36.10 36.57 36.79 37.02 37.44 37.86 38.22
26.38 26.29 26.28 27.28 27.07 27.04 26.49 24.56 24.54 25.25 24.41 19.75 23.74 22.93 25.22 25.60 31.32 33.12 34.21 34.92 35.44 35.84 36.24 36.57 36.70 37.01 37.43
32.40 33.02 33.07 33.02 31.36 26.27 21.99 20.77 19.49 21.44 23.89 21.66 21.02 21.36 23.66 24.37 26.11 31.50 33.07 33.93 34.39 34.65 35.06 35.32 35.62 35.91 34.71
23.36 24.03 25.37 23.96 29.58 24.82 20.58 16.43 19.61 18.88 21.41 18.15 17.58 21.19 17.16 21.63 21.64 24.80 26.05 30.07 31.66 32.63 33.54 34.15 34.42 31.74 30.87
21.15 21.42 22.26 22.20 23.36 23.59 23.75 16.73 20.16 19.33 23.69 24.53 17.57 20.73 21.14 19.56 20.87 23.45 23.77 24.12 24.21 25.67 29.73 31.09 31.89 31.88 28.97
20.37 20.17 20.61 21.16 21.56 22.30 22.92 22.37 22.63 22.31 23.17 23.64 20.39 16.51 18.70 17.81 17.68 21.65 22.46 23.48 23.60 23.15 23.67 27.32 30.42 32.11 33.41
19.44 20.01 19.49 20.15 20.77 20.49 21.23 21.09 19.55 20.94 22.84 21.56 21.49 21.55 20.70 18.38 17.92 19.59 20.71 22.43 23.63 22.80 23.01 23.19 23.45 24.65 23.49
19.04 20.02 20.53 16.79 19.91 19.80 18.55 19.02 18.35 18.93 20.85 20.85 19.89 20.06 19.21 20.10 20.38 19.39 20.97 19.81 22.62 23.47 24.06 24.74 25.61 26.68 26.72
18.35 18.54 19.08 19.42 19.20 19.51 18.29 18.33 17.21 17.59 19.01 21.38 22.70 23.08 22.71 22.16 19.83 20.91 21.13 21.27 22.42 22.51 23.38 23.58 25.71 26.71 26.96
17.75 17.15 17.02 16.96 17.51 19.42 20.86 18.83 17.43 18.10 18.72 20.42 20.94 21.48 22.70 24.58 26.32 20.51 21.51 21.54 23.31 24.31 25.29 24.23 25.32 28.87 29.96
15.47 15.49 16.50 17.40 20.79 18.79 18.33 19.04 19.97 20.26 20.20 21.64 22.84 23.24 20.33 18.87 25.67 31.82 25.51 25.94 26.84 27.05 27.01 26.56 25.99 27.66 29.04

GFSFLT2_sfc_wetblb_057.txt.gz
Wetbulb
31.31 31.71 31.56 33.52 34.55 35.29 35.04 35.03 35.56 36.62 37.77 38.05 38.29 38.95 39.53 39.97 40.48 41.05 41.48 42.12 42.76 43.57 44.27 45.10 45.62 45.97 46.21
30.55 31.05 31.42 33.24 33.19 32.92 33.19 34.25 34.51 35.14 36.66 37.45 37.97 38.16 38.51 38.96 39.36 39.92 40.19 40.59 41.17 41.56 42.07 42.66 43.47 44.04 44.46
29.79 31.66 31.59 31.85 32.02 32.67 32.44 32.90 32.90 34.22 35.46 35.92 36.39 36.91 37.55 38.11 38.64 39.09 39.00 39.14 39.40 39.56 40.08 40.62 41.27 42.02 43.00
29.89 30.33 30.59 32.18 30.99 29.67 29.84 31.94 30.93 32.38 33.71 34.12 35.15 35.57 36.26 36.84 36.85 36.71 36.72 36.99 37.75 38.41 38.70 38.93 39.22 40.08 41.13
29.82 29.87 29.50 29.79 29.45 30.73 28.64 29.78 30.80 31.79 31.27 31.86 32.03 32.25 32.93 34.04 33.91 34.32 34.68 35.86 36.95 37.92 38.61 39.07 39.33 39.87 40.67
29.72 28.28 29.34 29.80 30.02 28.96 28.74 26.65 24.72 32.65 29.84 29.70 31.99 30.55 31.74 32.44 33.53 34.50 35.51 36.41 36.94 37.37 37.83 38.13 38.51 38.86 39.47
29.92 29.54 28.74 29.79 30.02 28.05 28.92 27.84 26.25 30.19 29.69 27.04 30.66 29.00 31.36 31.39 33.22 34.14 34.93 35.66 36.28 36.84 37.22 37.48 37.75 38.14 38.51
31.35 30.87 31.20 31.45 30.89 30.64 29.63 28.78 28.99 29.76 29.97 23.76 29.42 28.35 30.59 30.94 32.61 33.41 34.28 35.12 35.62 36.01 36.54 36.86 37.04 37.18 37.44
32.29 33.03 33.01 32.67 31.79 29.95 27.39 25.82 23.80 25.75 28.76 25.64 26.72 27.13 28.11 28.96 30.81 32.31 33.20 33.99 34.43 34.69 35.16 35.41 35.76 36.18 35.39
28.46 28.25 28.32 27.90 29.54 28.39 27.08 23.80 22.89 22.48 28.13 24.65 25.87 25.49 23.56 28.92 29.58 30.06 29.87 31.37 32.08 32.77 33.48 33.86 34.08 32.57 32.30
25.97 26.54 26.92 27.18 27.50 27.64 27.29 25.52 22.60 22.63 27.34 26.36 25.26 24.49 23.24 23.16 26.47 28.31 28.77 29.10 29.29 30.00 30.63 31.24 31.78 31.79 30.51
24.47 24.89 25.14 25.70 26.33 26.44 26.22 26.18 26.39 24.66 26.69 26.13 22.59 22.76 22.00 21.53 21.54 26.67 28.64 29.50 29.67 28.90 29.36 30.04 31.02 31.97 32.97
23.45 24.22 24.96 25.20 24.84 25.03 25.84 26.03 24.87 24.86 25.87 25.32 23.85 23.27 23.13 21.67 21.62 23.01 24.45 27.31 28.91 28.21 28.24 28.20 28.40 28.63 28.12
23.06 23.64 24.21 24.17 24.20 25.57 23.71 24.43 23.06 24.40 27.71 26.37 25.04 24.02 22.48 23.39 23.48 22.65 25.06 23.59 27.98 28.39 28.82 29.02 29.22 29.63 29.29
22.01 21.84 22.38 23.13 23.28 24.53 23.37 22.85 21.62 22.56 24.03 26.75 27.89 27.09 26.21 24.49 22.62 24.48 25.25 26.09 28.27 28.24 27.64 26.53 28.65 29.94 30.31
21.13 20.96 20.74 21.02 21.73 23.65 25.70 23.84 22.13 22.83 23.56 26.10 26.68 25.67 26.74 28.24 28.36 24.40 26.77 27.10 28.72 29.40 28.84 26.34 27.17 31.17 32.31
19.97 20.01 20.40 20.78 23.01 23.80 24.04 23.89 23.74 24.12 25.79 26.98 26.99 26.48 23.56 22.02 29.01 33.28 29.49 30.09 29.94 28.88 29.57 29.48 28.84 30.36 32.29

GFSFLT2_sfc_wetblb_060.txt.gz
Wetbulb
33.74 33.98 33.33 33.61 34.21 36.83 37.31 36.93 37.90 38.55 39.04 39.14 38.94 39.24 39.99 40.56 40.86 41.38 41.85 42.52 43.23 43.68 44.39 45.13 45.82 46.04 46.25
31.33 31.47 31.91 34.62 34.42 34.12 35.15 36.25 36.64 37.31 37.94 38.01 38.63 39.15 39.30 39.51 39.63 40.10 40.55 41.09 41.63 42.05 42.75 43.24 43.60 44.09 44.76
31.42 33.29 33.32 33.91 33.38 34.90 35.63 35.68 36.03 36.38 37.01 37.05 37.70 37.99 38.32 38.73 39.04 39.31 39.29 39.57 40.02 40.15 40.49 41.05 41.70 42.39 43.32
31.92 32.57 33.24 34.48 34.40 32.16 32.42 34.26 33.47 34.97 36.00 36.48 36.50 36.72 37.11 37.51 37.56 37.44 37.42 37.72 38.31 38.83 39.10 39.21 39.58 40.33 41.28
31.92 32.46 32.34 32.52 31.81 32.97 31.16 31.99 33.21 34.13 34.30 35.22 35.31 35.42 35.96 36.79 36.42 36.34 36.40 36.83 37.48 38.20 38.75 39.27 39.39 39.78 40.61
32.38 31.00 31.64 32.32 32.74 31.55 30.66 28.63 26.84 34.90 33.12 32.36 34.91 33.78 34.95 35.78 36.50 36.36 36.64 37.06 37.39 37.62 38.07 38.49 38.65 38.96 39.59
31.30 31.34 30.98 32.25 32.07 30.17 29.67 28.97 27.93 32.07 32.50 29.55 33.64 32.29 34.85 34.94 36.09 36.15 36.23 36.34 36.59 37.03 37.32 37.76 38.09 38.36 38.51
32.81 32.82 33.08 33.25 32.08 32.24 31.35 31.14 31.91 33.03 33.68 28.34 32.33 31.11 33.41 34.18 35.55 35.64 35.83 35.97 36.12 36.39 36.75 37.02 37.07 37.25 37.77
32.27 32.98 33.66 33.92 33.45 31.51 29.33 28.89 27.46 29.06 32.23 29.51 30.50 30.13 31.97 32.20 33.40 34.75 34.60 34.74 35.18 35.69 35.94 35.92 36.03 36.34 35.66
31.76 31.86 31.84 31.47 31.01 31.00 30.48 26.77 26.04 25.37 31.90 27.65 28.58 28.01 25.89 30.89 32.06 32.88 32.69 34.10 34.38 34.78 34.85 34.85 34.92 32.79 32.60
29.91 30.33 30.88 31.16 31.31 31.59 31.01 28.56 25.24 25.05 30.48 29.67 27.91 27.12 25.72 25.26 29.28 31.62 32.19 32.01 32.49 33.31 33.62 33.81 33.78 33.25 30.98
28.21 28.71 29.25 29.92 30.93 30.75 30.13 29.71 29.63 27.99 29.95 29.46 25.64 25.49 24.50 23.70 24.06 29.56 32.02 32.41 32.41 31.34 32.32 33.09 33.54 33.74 34.08
27.67 28.46 29.38 29.70 29.15 29.21 31.42 31.21 29.78 29.53 29.36 28.46 27.07 25.99 24.37 22.78 23.57 25.45 26.76 29.51 31.29 30.86 31.77 32.02 31.62 31.81 29.21
27.30 27.96 28.54 28.19 28.18 29.50 27.49 27.72 26.15 28.26 32.94 31.10 29.46 27.39 24.04 24.70 25.27 24.19 27.50 25.63 30.18 30.94 31.47 31.33 31.15 30.61 29.80
26.26 25.83 26.14 26.99 27.35 29.05 27.71 26.78 25.48 25.57 27.04 30.26 31.93 30.85 29.45 27.71 24.74 25.92 26.19 28.29 30.63 30.58 29.98 29.04 30.62 31.67 31.93
25.45 25.18 24.78 25.02 25.62 27.48 29.21 28.41 26.46 26.13 26.17 28.97 29.26 28.08 29.62 31.22 31.67 27.68 29.19 29.06 31.25 31.96 31.70 29.47 29.75 32.75 33.98
24.64 24.28 24.38 24.47 24.95 26.36 27.53 28.18 27.72 27.72 28.43 29.67 29.46 28.04 25.62 24.11 30.55 34.23 30.28 31.51 30.88 29.47 30.52 30.57 30.01 31.97 33.93

GFSFLT2_sfc_wetblb_063.txt.gz
Wetbulb
35.06 34.59 34.28 34.47 35.16 35.64 36.71 36.63 36.64 39.32 40.28 40.42 40.50 40.48 40.46 40.97 41.51 41.94 42.23 42.75 43.37 44.07 44.84 45.35 45.20 45.96 46.29
32.56 32.92 32.63 34.15 34.61 34.32 35.13 36.52 36.07 37.93 39.29 39.44 39.49 39.79 40.09 40.43 40.57 40.77 40.79 41.22 41.73 42.26 43.03 43.66 44.05 44.23 44.91
32.25 33.44 33.59 34.30 33.44 34.07 34.57 35.48 36.11 37.97 38.58 38.40 38.76 39.07 39.41 39.65 39.95 40.16 40.16 40.32 40.47 40.54 40.85 41.35 41.96 42.61 43.36
31.49 32.17 32.85 33.92 33.74 31.95 31.23 33.56 32.70 35.14 36.60 37.28 38.37 38.48 38.83 39.04 39.11 38.82 38.67 38.80 39.01 39.29 39.44 39.61 39.87 40.58 41.32
31.44 32.07 32.10 31.82 30.93 31.83 29.87 30.80 31.64 32.80 32.46 33.13 33.16 33.66 34.60 37.20 37.35 37.85 37.99 38.14 38.41 38.83 39.29 39.66 39.76 40.03 40.58
32.65 30.29 30.14 30.80 31.24 30.13 29.36 27.45 26.37 32.45 30.48 30.07 33.29 31.84 33.09 34.07 37.44 38.02 38.03 38.04 38.12 38.42 38.62 38.88 38.98 39.06 39.24
30.59 30.09 29.69 30.91 30.00 28.45 28.48 28.75 27.60 30.32 30.82 28.29 31.73 30.80 32.80 34.38 37.10 37.49 37.64 37.80 37.80 37.89 37.98 38.13 38.38 38.70 38.94
31.90 31.61 31.70 32.13 31.41 31.30 30.52 30.16 30.42 31.01 31.90 26.69 30.50 29.51 31.80 32.65 36.53 36.85 37.04 37.19 37.24 37.30 37.48 37.63 37.69 37.88 37.98
32.91 33.26 33.76 34.29 33.97 30.93 27.94 27.00 26.79 27.32 30.15 27.69 28.27 28.52 29.50 29.49 30.95 35.30 36.32 36.55 36.63 36.82 37.08 37.00 36.95 37.13 35.68
29.98 31.28 32.29 31.18 32.87 29.77 28.55 26.68 25.89 24.92 29.10 25.41 26.49 26.88 24.44 27.77 28.81 29.92 29.88 34.08 35.42 36.02 36.11 36.20 36.20 33.25 31.94
28.32 28.19 28.78 29.10 29.52 29.80 29.68 29.03 25.93 24.78 28.73 29.18 24.74 25.39 25.78 25.18 26.37 27.93 28.61 29.35 30.14 31.57 34.45 34.74 34.94 34.19 31.18
26.70 26.93 27.79 29.00 30.32 30.71 29.99 29.92 29.63 28.35 28.89 28.67 25.72 24.50 23.42 22.10 21.83 25.28 26.89 27.87 28.55 28.55 29.20 32.48 34.14 34.42 34.88
26.69 27.72 28.84 29.25 29.06 28.32 29.70 30.57 30.17 30.15 30.16 28.00 27.42 26.31 25.01 22.70 22.24 23.32 24.48 25.76 27.26 27.13 29.14 30.39 30.28 31.05 29.56
26.01 26.66 27.79 27.82 27.46 28.50 27.26 27.12 26.27 26.22 29.48 31.20 30.63 28.66 25.46 25.29 24.74 23.51 25.26 23.67 26.26 26.89 28.35 29.74 30.58 31.14 30.21
26.16 25.58 25.59 25.96 26.00 27.69 27.04 26.89 25.84 26.20 26.70 28.94 30.70 30.77 29.87 27.48 24.89 26.26 26.65 27.14 28.55 29.03 28.91 28.32 30.87 31.76 31.57
24.90 24.47 24.30 23.94 23.99 25.29 25.94 26.36 26.39 26.57 26.74 28.29 28.71 28.39 28.19 28.63 31.81 27.09 28.23 28.67 29.50 30.28 30.99 29.03 28.36 30.81 32.24
24.39 24.25 23.80 23.59 23.76 23.83 24.48 25.63 26.21 26.69 27.02 28.42 28.43 27.41 24.32 23.01 27.83 34.51 27.55 27.73 27.77 27.55 29.00 29.03 28.50 29.95 31.54

GFSFLT2_sfc_wetblb_066.txt.gz
Wetbulb
34.28 35.25 34.76 35.67 37.02 36.89 36.97 36.08 35.48 39.66 40.45 40.77 41.07 41.17 41.33 41.42 41.64 42.30 42.77 43.14 43.56 44.05 44.77 45.19 45.48 46.04 46.22
32.63 32.54 33.31 34.06 34.67 34.05 34.87 36.03 34.07 37.83 39.56 40.10 40.48 40.42 40.42 40.60 40.90 41.19 41.33 41.54 41.84 42.46 42.82 43.24 43.69 44.34 45.07
32.09 33.42 33.53 33.51 32.41 32.71 32.04 31.68 34.63 37.65 38.57 38.58 38.75 39.38 39.94 40.25 40.28 40.50 40.53 40.60 40.72 40.86 41.09 41.50 42.03 42.70 43.46
31.39 31.71 31.84 31.56 30.51 28.20 27.13 29.61 29.11 33.34 35.02 36.40 37.89 38.56 38.94 39.13 39.26 39.11 39.11 39.32 39.71 40.00 40.02 40.02 40.18 40.89 41.76
29.69 28.34 28.43 28.31 27.97 28.65 26.88 27.03 27.53 28.59 28.48 28.55 28.93 30.23 31.91 35.87 36.29 37.31 38.03 39.04 39.48 39.68 39.93 40.17 40.26 40.43 40.85
26.33 27.37 27.37 27.03 27.60 27.69 25.92 23.01 20.45 27.67 26.82 27.78 29.06 28.59 29.36 30.04 36.31 38.04 38.66 38.88 39.09 39.31 39.45 39.53 39.56 39.46 39.67
28.05 26.71 25.72 27.36 25.32 22.87 24.95 22.54 23.63 27.16 27.10 26.31 27.13 27.65 28.93 32.28 36.37 37.40 38.04 38.32 38.49 38.81 38.86 38.97 39.11 39.02 39.09
28.02 27.42 27.86 29.07 28.75 26.86 25.86 26.37 26.90 27.27 27.12 22.99 25.65 26.68 28.68 28.50 35.38 36.35 36.81 37.41 37.76 37.96 38.15 38.24 38.10 38.13 38.38
32.89 32.88 33.34 33.91 33.11 26.25 21.93 19.87 21.08 23.98 26.23 23.54 23.83 24.34 27.37 27.84 28.43 34.46 35.73 35.74 35.83 36.40 37.14 37.44 37.50 37.53 36.21
26.43 27.82 29.62 28.80 33.14 27.28 23.35 14.65 24.50 22.08 24.65 20.27 21.59 22.55 21.52 23.85 24.30 28.13 26.97 32.30 34.09 34.47 35.31 35.98 36.30 33.37 32.70
24.47 23.78 24.81 25.21 26.08 26.31 26.29 18.61 23.83 25.20 28.28 28.49 21.32 26.03 24.90 24.03 22.91 23.58 26.30 26.06 26.72 28.00 31.80 33.54 34.35 34.42 31.77
23.49 22.59 22.95 23.44 28.14 29.76 29.42 29.45 29.19 27.80 29.17 28.63 24.88 24.56 23.46 22.58 22.28 23.40 24.51 26.01 24.36 23.82 25.33 29.80 33.19 34.52 35.06
21.76 24.24 27.82 28.34 28.82 27.96 28.95 29.50 29.27 29.62 30.36 29.47 27.88 27.19 25.98 23.61 23.21 24.45 25.25 24.76 26.28 23.88 21.44 25.74 26.29 27.89 27.86
20.00 21.18 22.07 26.81 26.40 27.62 26.32 26.94 26.31 26.47 26.84 29.73 28.98 28.53 26.86 26.72 25.65 24.13 24.96 23.77 26.68 27.02 27.50 27.74 28.11 29.19 29.42
24.11 24.87 24.88 25.21 25.08 26.43 25.99 25.81 24.43 23.57 25.45 28.88 30.53 30.35 29.72 27.17 25.94 27.07 26.81 27.00 27.54 28.06 29.17 28.42 29.12 30.27 30.69
24.78 23.76 23.41 23.64 23.71 24.59 25.24 24.42 23.21 23.13 25.68 27.28 27.91 27.76 28.02 28.32 31.44 27.58 27.95 27.34 27.52 27.31 27.59 26.39 26.98 29.61 30.73
24.32 24.08 24.07 23.75 23.57 23.07 23.36 23.52 22.95 23.78 25.83 27.17 27.25 26.50 23.64 21.29 26.28 33.63 27.04 27.56 27.56 27.40 27.50 26.90 27.59 29.35 30.76

GFSFLT2_sfc_wetblb_069.txt.gz
Wetbulb
35.01 34.79 34.74 35.90 36.80 38.51 38.55 37.99 37.46 40.44 41.56 41.61 41.35 41.51 41.74 41.76 41.80 42.26 42.63 43.14 43.55 44.05 44.56 44.83 45.34 45.73 45.87
32.25 32.70 33.91 35.19 35.96 35.27 36.26 36.87 34.96 37.66 39.72 40.32 40.65 40.89 40.59 40.48 40.80 41.22 41.41 41.67 42.03 42.27 42.91 43.31 43.86 44.28 44.78
32.40 33.88 33.73 34.19 33.42 33.58 33.21 32.41 34.25 37.34 39.14 38.58 38.47 38.97 39.50 40.16 40.67 40.58 40.40 40.51 40.83 40.99 41.33 41.72 42.16 42.71 43.40
31.86 31.73 32.07 32.10 30.26 28.15 28.00 29.11 28.50 32.41 34.03 35.59 36.96 37.36 37.79 38.57 38.65 38.15 38.22 38.76 39.43 39.99 40.31 40.40 40.53 41.11 41.87
30.80 29.69 28.48 27.83 27.09 28.03 27.01 26.20 26.30 27.42 27.75 27.85 28.44 28.42 30.19 34.77 35.40 36.49 37.52 38.86 39.52 40.03 40.34 40.51 40.59 40.72 41.01
26.13 27.49 26.70 25.93 26.93 26.36 23.72 23.21 20.91 27.31 26.37 27.21 28.78 27.91 28.54 29.02 35.18 37.47 38.06 38.39 39.00 39.37 39.81 40.02 40.14 40.15 40.22
27.56 25.94 25.51 26.84 23.91 21.84 24.65 22.30 23.17 26.73 26.38 24.88 26.36 25.86 27.58 30.85 35.32 36.61 37.36 37.82 38.18 38.49 38.81 38.94 38.93 39.03 39.38
27.67 27.06 26.89 27.62 27.16 24.12 23.50 24.72 25.61 26.47 26.11 18.46 24.64 25.08 26.49 27.26 33.97 35.03 35.88 36.73 36.92 36.89 37.15 37.65 37.89 38.30 38.64
32.84 33.00 33.48 33.77 32.37 25.15 21.50 18.32 19.53 23.67 25.50 22.77 22.83 23.91 24.92 25.31 27.01 33.83 34.49 34.69 34.73 35.08 35.87 36.08 36.53 37.13 36.26
25.81 26.95 27.83 27.01 32.83 27.11 23.06 13.07 14.54 15.89 23.96 19.05 20.17 25.75 19.69 23.08 23.72 26.68 25.97 31.15 32.77 33.05 33.46 33.97 34.47 32.78 32.17
23.28 23.04 24.28 25.32 26.40 26.23 25.54 14.79 14.57 24.91 27.97 27.61 22.04 25.83 25.12 24.50 25.38 23.00 24.46 25.24 25.67 26.99 30.94 32.39 33.07 33.44 31.26
23.11 22.18 22.44 22.95 27.31 28.05 29.21 29.48 29.44 27.75 29.12 28.65 25.14 24.68 23.69 22.75 22.77 23.96 23.38 26.60 25.32 23.37 22.77 28.66 32.53 33.86 34.53
20.97 20.45 26.06 23.67 24.11 27.93 29.01 29.26 28.91 29.30 30.27 29.71 27.92 27.05 26.08 24.14 23.80 24.73 24.97 21.98 24.82 25.09 22.83 23.87 24.61 26.03 25.06
19.37 20.47 21.87 26.36 26.13 27.17 25.69 26.37 25.85 26.23 26.13 22.53 28.29 27.71 25.36 26.43 26.27 25.65 27.08 25.13 27.32 27.87 27.16 26.99 27.96 28.47 27.70
22.63 24.79 24.60 24.82 25.03 25.92 25.17 24.80 23.38 23.36 23.96 21.82 28.96 30.11 29.31 27.62 25.61 26.59 26.75 27.16 27.51 27.20 27.54 27.30 28.33 29.08 29.05
24.89 24.23 23.33 23.42 23.57 24.33 24.85 23.72 22.33 22.79 23.34 24.69 26.06 26.55 25.93 26.70 30.77 26.87 27.33 26.06 26.98 26.82 26.78 26.04 26.44 28.37 29.18
24.18 23.98 24.04 23.81 23.62 22.81 23.29 23.39 22.63 23.00 23.74 24.92 22.84 23.90 22.23 20.24 25.29 32.07 25.52 25.27 26.64 26.77 27.87 26.80 26.22 27.56 29.14

GFSFLT2_sfc_wetblb_072.txt.gz
Wetbulb
35.64 35.44 35.87 37.04 38.64 38.70 39.41 39.33 39.24 41.96 43.33 43.64 43.79 42.69 42.43 42.47 42.61 42.68 42.76 43.24 43.75 44.30 44.58 44.99 45.41 45.59 46.10
33.72 33.25 34.05 35.73 36.88 36.78 37.59 38.12 36.83 38.55 40.78 40.91 41.15 41.45 41.54 41.25 40.82 41.34 41.67 41.88 41.85 42.35 43.02 43.28 43.96 44.38 44.76
32.79 33.18 33.14 34.70 34.09 34.66 34.46 34.32 34.84 36.96 38.92 39.85 39.77 39.14 39.37 39.84 40.52 41.12 40.70 40.55 40.75 41.12 41.52 41.96 42.46 43.05 43.54
32.24 31.97 32.13 32.60 31.77 30.35 29.51 29.49 29.04 31.98 33.74 35.30 36.97 37.39 37.99 38.47 38.88 38.76 38.17 38.53 39.31 39.99 40.44 40.76 41.05 41.49 42.21
30.92 30.92 30.43 29.12 27.83 27.90 27.08 26.40 26.50 26.86 27.23 27.37 27.78 28.01 29.06 33.97 35.10 36.47 37.20 38.61 39.44 40.16 40.58 40.87 40.99 41.25 41.36
29.02 26.26 25.07 24.67 25.23 25.25 22.04 21.26 19.78 25.93 25.43 25.61 27.22 26.63 27.68 27.70 34.40 36.82 38.06 38.29 38.83 39.43 39.77 39.90 40.01 40.29 40.22
26.60 24.94 24.35 25.89 22.13 21.06 23.72 20.00 20.82 25.14 25.78 23.72 25.55 25.38 26.93 29.65 34.51 35.95 36.95 37.68 38.05 38.22 38.29 38.61 38.79 39.23 39.56
26.58 25.88 25.71 26.36 26.22 23.54 22.83 23.86 25.22 25.84 25.45 18.09 24.02 24.49 25.93 26.44 32.85 34.47 35.66 36.19 36.17 36.32 36.41 37.05 37.42 37.59 38.34
32.90 33.02 33.73 33.99 31.31 25.19 21.90 18.03 19.29 23.35 24.98 22.57 22.40 23.08 24.42 24.83 26.53 33.03 33.55 34.20 34.36 34.80 35.09 35.27 35.59 36.00 35.06
25.16 25.81 26.72 26.56 31.45 27.16 22.72 11.76 13.56 15.53 23.65 18.69 19.92 23.47 17.95 23.07 23.21 26.13 25.91 31.47 33.11 33.58 34.19 34.30 34.35 31.57 30.48
22.72 22.79 24.09 25.23 26.01 26.12 24.84 15.19 12.45 23.03 27.63 27.71 24.18 26.01 25.39 23.42 22.45 23.77 23.34 25.76 25.69 26.89 31.28 32.54 33.11 33.08 30.52
22.98 21.88 22.17 22.24 26.61 27.73 28.65 29.46 29.53 27.79 29.16 28.73 25.20 24.81 23.79 23.13 21.84 21.55 21.70 24.32 23.25 22.07 20.49 28.06 31.63 33.19 34.13
20.09 19.18 19.69 18.59 20.35 26.75 28.76 29.16 28.66 29.11 30.04 29.45 27.96 27.07 26.10 23.74 22.50 24.36 25.09 21.81 24.75 23.42 20.84 21.86 23.17 24.69 24.68
18.62 19.78 21.38 26.02 25.53 26.93 25.09 25.44 24.71 25.26 28.50 28.76 21.72 22.29 24.83 24.89 24.50 24.71 26.83 24.94 21.25 25.59 26.52 25.83 27.24 27.48 27.15
24.96 25.00 25.15 25.26 24.85 25.78 24.92 24.25 22.50 22.54 23.44 25.95 24.60 23.79 26.27 26.05 24.43 25.54 26.13 26.40 27.80 26.54 26.02 26.15 27.73 28.29 28.11
25.04 24.64 23.86 23.50 23.48 24.24 24.49 23.22 21.17 19.79 20.20 21.15 24.98 19.01 21.12 23.73 29.73 25.73 26.77 26.85 26.92 26.53 26.16 25.34 26.00 28.30 29.28
23.93 23.66 23.80 23.57 23.84 22.61 22.34 19.38 20.62 18.91 19.70 20.99 14.91 15.56 18.54 18.24 22.64 30.73 23.72 19.64 22.34 25.13 26.31 25.89 26.14 27.44 28.86

GFSFLT2_sfc_wetblb_075.txt.gz
Wetbulb
35.75 35.85 36.70 38.11 39.50 39.38 40.85 40.55 40.09 42.73 44.11 44.92 45.21 45.02 44.73 43.94 43.65 43.66 43.74 43.94 44.26 44.66 45.25 45.64 45.72 45.99 46.37
33.84 33.86 34.40 36.44 37.33 37.56 38.69 39.27 38.35 39.00 41.36 42.77 42.93 42.46 42.52 42.31 42.25 41.55 41.75 42.27 42.51 42.72 43.09 43.95 44.38 44.65 45.26
33.12 33.73 33.38 33.62 34.50 35.54 35.67 35.78 37.19 37.31 38.80 40.15 40.71 40.89 39.87 39.92 40.34 40.76 41.32 41.19 41.14 41.35 41.68 42.20 42.78 43.30 43.82
32.74 32.35 32.53 33.38 32.52 31.40 30.98 31.18 30.90 32.17 33.49 34.59 36.33 37.20 38.05 38.55 38.96 39.17 39.28 39.20 39.49 40.01 40.41 40.70 41.13 41.76 42.43
30.97 30.82 30.29 29.22 27.97 28.41 27.28 25.87 25.65 25.94 26.38 26.77 27.02 27.50 28.57 33.29 34.68 36.44 37.12 37.95 39.14 40.07 40.65 40.90 41.06 41.06 41.59
24.27 24.97 23.77 23.60 24.27 24.52 21.26 19.92 19.38 25.31 24.77 25.03 26.43 26.23 27.08 27.35 33.74 36.40 37.67 38.51 38.76 39.26 39.71 39.69 39.88 40.06 40.32
24.79 23.77 23.47 24.89 19.98 19.42 23.11 18.93 20.38 24.47 25.49 23.29 25.02 24.87 26.45 28.68 33.46 35.58 36.57 37.34 38.02 38.33 38.14 38.16 38.47 38.96 39.24
26.10 25.68 25.49 25.92 25.77 22.46 22.13 23.51 24.92 25.48 25.00 17.42 23.57 24.23 25.55 25.94 32.53 34.58 36.03 35.74 35.55 35.93 36.36 36.78 36.91 37.31 37.69
32.88 33.17 33.44 34.09 30.95 24.83 26.01 17.97 18.98 22.86 24.75 22.04 21.50 22.36 23.85 24.10 26.30 32.76 33.34 34.09 34.44 34.73 35.58 35.72 35.92 36.13 35.17
24.88 25.30 26.54 27.43 31.56 26.85 22.18 11.29 13.11 14.95 22.97 18.29 19.44 21.31 16.79 22.36 23.04 25.32 25.58 31.32 33.36 33.98 34.54 34.73 35.04 32.38 29.36
22.55 22.84 24.26 24.94 25.77 25.78 24.13 14.05 10.75 19.26 25.24 27.38 19.83 25.35 23.49 21.02 22.29 22.93 22.51 25.03 25.32 26.85 31.21 32.89 33.43 32.82 28.22
22.77 21.25 21.32 21.45 25.87 28.32 28.32 29.00 29.18 27.61 28.93 27.78 24.91 24.67 23.18 23.26 20.56 20.83 19.49 23.31 22.55 22.15 20.52 28.15 32.15 33.56 34.07
19.41 18.40 18.78 17.27 18.46 25.69 28.46 28.80 28.24 28.76 29.82 29.02 27.62 26.99 25.89 24.06 22.68 23.81 25.12 20.72 25.27 21.66 19.85 20.42 22.63 22.76 24.49
18.14 19.28 20.71 25.99 25.31 26.64 24.74 25.06 24.01 24.31 26.54 28.51 28.31 26.21 22.35 22.29 23.86 23.07 25.04 23.96 21.11 23.80 23.84 25.67 26.38 26.86 26.48
24.99 24.81 25.28 25.60 25.14 25.61 24.79 23.98 22.30 17.32 14.97 19.24 26.64 25.70 23.47 22.95 22.61 24.43 24.73 25.36 26.62 27.42 25.17 25.31 26.36 27.21 27.50
24.95 24.68 23.99 23.70 22.93 23.10 23.92 22.94 21.10 15.85 14.07 13.37 14.53 22.50 16.72 21.66 27.53 23.04 24.85 25.08 25.00 25.21 25.06 24.86 24.94 27.10 28.22
23.78 23.50 23.53 23.15 23.68 21.54 20.22 15.71 17.87 15.01 14.65 13.73 8.96 13.31 16.69 15.80 21.49 30.09 22.96 22.90 18.38 22.96 24.80 24.95 24.98 26.14 27.69

GFSFLT2_sfc_wetblb_078.txt.gz
Wetbulb
35.65 35.88 36.94 38.43 39.03 40.09 40.84 40.47 40.62 43.78 44.75 44.88 45.19 45.33 45.35 44.50 44.13 44.32 44.41 44.93 45.45 45.53 45.80 46.13 46.48 46.72 46.72
34.23 34.15 34.45 36.47 37.68 37.88 38.94 39.47 38.63 39.80 41.57 42.65 43.39 42.96 42.75 42.84 42.89 42.49 42.41 42.54 42.94 43.24 43.59 43.96 44.51 45.15 45.48
32.98 34.14 33.67 34.97 35.12 35.81 36.19 36.14 37.83 37.95 39.13 40.05 40.90 41.22 41.85 40.79 40.43 40.56 41.03 41.51 41.64 41.28 41.85 42.31 42.68 43.24 43.93
32.94 32.39 32.57 33.13 32.64 31.93 31.67 31.87 31.34 32.57 34.03 35.25 36.25 36.76 37.52 38.42 38.80 39.11 39.45 39.71 39.97 39.94 40.41 40.76 40.93 41.54 42.42
26.28 26.09 27.35 27.00 26.22 26.47 26.04 25.50 25.23 25.88 26.30 26.48 26.82 27.12 28.18 32.79 34.34 36.35 37.04 37.74 38.53 39.52 40.61 40.93 40.78 41.20 41.61
19.44 23.86 23.04 23.03 23.69 24.05 20.80 19.53 18.83 24.77 24.63 25.00 25.96 25.75 26.81 27.17 33.13 35.86 37.15 38.08 39.01 39.28 39.65 40.12 39.85 39.89 40.60
24.12 23.38 23.21 24.56 19.48 18.92 22.58 18.55 20.12 24.21 25.01 23.01 24.76 24.65 26.26 28.27 33.22 35.58 36.79 37.40 37.94 38.48 38.46 38.22 38.25 38.78 39.01
25.62 25.16 25.12 25.41 25.34 22.34 22.10 23.12 24.55 25.15 24.42 16.86 23.15 24.11 25.45 25.89 32.21 35.49 36.37 36.49 35.60 35.81 36.21 36.75 37.17 37.27 37.35
32.87 33.28 33.18 33.70 30.34 25.33 22.22 18.40 18.64 22.16 24.16 21.42 21.33 21.94 23.67 24.02 26.23 33.72 33.63 33.83 34.32 34.60 35.45 36.07 36.32 36.60 34.31
24.24 25.04 26.89 28.40 31.81 25.91 21.25 11.21 12.35 15.62 22.29 21.24 20.06 20.63 16.10 21.80 23.15 25.31 25.72 30.99 33.23 33.77 34.26 34.72 35.16 31.47 29.74
22.49 23.09 24.34 24.85 25.53 25.26 23.05 14.52 18.84 21.42 25.69 27.46 24.27 25.71 23.52 19.20 21.95 22.71 22.85 24.94 25.31 26.17 30.72 32.28 33.23 32.90 27.38
22.36 20.53 20.61 20.61 21.58 24.47 27.98 28.06 28.41 26.20 28.42 27.78 24.50 24.20 23.32 22.49 21.27 21.00 20.07 23.03 20.87 19.00 19.77 27.88 31.53 33.26 34.11
18.91 17.83 18.65 17.01 17.49 24.60 28.30 28.48 27.77 28.36 29.01 28.60 27.26 26.38 25.45 23.85 23.21 24.12 24.65 23.28 25.44 22.56 19.37 19.46 21.06 23.55 24.44
17.80 19.27 20.74 25.19 25.54 26.50 24.48 24.92 24.03 23.47 22.17 24.88 25.46 27.23 24.75 24.49 22.95 21.28 24.26 22.38 18.96 25.57 26.73 28.23 25.46 26.75 26.47
19.18 21.15 25.42 25.63 25.41 25.54 24.35 23.87 22.28 16.00 13.77 18.61 22.25 23.06 21.96 21.34 20.86 21.33 21.58 22.67 25.71 26.71 23.43 24.00 25.90 26.50 26.77
20.69 24.46 24.01 23.86 23.73 23.73 23.82 22.87 21.53 18.40 15.21 13.20 10.86 14.46 16.37 21.78 26.70 21.39 21.27 21.19 24.92 25.88 24.23 24.17 24.08 26.19 27.09
19.77 23.50 23.62 23.44 23.57 22.70 19.00 19.91 18.84 16.80 17.33 14.28 5.63 11.88 11.27 14.83 21.66 29.49 21.25 18.32 18.83 21.79 22.89 23.01 22.31 24.63 26.58

GFSFLT2_sfc_wetblb_081.txt.gz
Wetbulb
38.20 38.88 39.05 39.88 40.15 41.29 41.59 41.00 41.47 45.06 45.57 45.48 45.43 45.86 46.23 45.34 44.65 44.57 44.66 45.01 45.54 46.27 46.85 46.95 46.84 46.75 46.84
36.74 36.81 36.99 37.79 38.40 39.11 39.85 40.20 39.29 41.74 43.23 43.73 43.70 43.08 43.00 43.26 43.22 43.37 43.08 43.14 43.20 43.58 43.80 44.20 44.61 44.84 45.42
35.72 36.96 36.25 36.65 36.75 37.37 37.13 37.97 38.33 38.55 39.20 39.93 40.42 40.56 41.31 42.60 41.18 40.83 40.97 41.37 41.70 41.60 41.59 42.07 42.64 43.00 43.84
36.07 34.73 34.91 35.12 36.10 35.47 34.54 34.72 33.94 34.48 35.31 36.09 36.53 36.88 37.40 38.51 39.03 39.09 39.46 40.06 40.33 40.67 40.73 40.65 41.13 41.52 42.21
33.38 33.59 32.65 32.50 31.66 32.43 32.20 32.30 32.53 32.46 33.17 34.00 34.31 34.82 35.35 35.10 35.54 36.79 37.74 38.52 39.15 39.59 40.11 40.97 41.23 41.04 41.50
31.09 30.38 29.56 30.41 31.38 30.90 30.67 30.58 29.95 32.00 31.40 31.98 32.54 32.62 33.71 34.75 33.46 35.55 36.87 37.93 38.74 39.84 40.08 40.11 40.51 40.17 40.05
29.83 29.94 29.67 30.56 29.39 29.37 29.53 29.40 29.36 31.18 30.95 29.95 31.54 31.36 33.41 32.96 33.48 35.49 36.83 37.71 38.38 38.76 39.24 39.27 38.82 38.60 38.93
31.37 30.99 31.60 31.56 31.38 30.78 30.40 30.16 31.06 30.69 30.59 28.14 30.45 30.65 32.26 32.95 32.23 34.90 36.91 36.96 36.09 36.09 36.46 37.00 37.39 37.75 38.09
33.09 33.24 32.87 33.69 32.37 31.75 30.00 29.24 27.56 27.86 29.94 28.71 29.19 28.44 29.83 30.55 32.59 35.04 34.60 33.92 34.36 34.98 35.48 35.98 36.59 37.04 37.35
28.99 29.11 30.19 31.95 32.41 30.37 29.83 27.87 26.98 26.93 29.28 27.86 27.95 27.98 27.11 29.90 31.21 32.61 32.57 31.81 33.28 33.61 34.35 34.74 35.15 35.47 35.50
27.98 28.77 29.17 29.76 29.95 29.77 28.87 28.27 27.46 26.86 30.41 29.83 28.60 28.27 27.24 26.63 29.34 30.81 31.02 31.31 31.53 32.16 31.79 32.45 33.01 34.12 34.07
26.90 26.89 27.49 28.04 28.64 29.24 29.79 30.34 30.11 29.10 30.29 30.43 27.71 27.50 26.50 25.47 24.85 29.48 30.21 31.09 31.28 30.32 31.00 31.18 31.63 33.35 34.63
25.90 26.40 27.56 28.00 26.88 28.18 30.09 30.51 30.84 30.81 30.96 30.09 28.99 28.52 27.72 25.68 25.31 26.57 27.39 29.40 30.58 29.93 30.68 30.68 30.98 31.64 30.56
26.21 26.88 27.41 27.31 27.51 28.60 27.18 27.43 26.61 27.02 29.65 28.51 28.45 28.31 26.37 26.81 26.84 25.60 26.88 24.86 29.44 29.71 29.86 29.67 30.66 31.90 31.31
26.01 26.20 26.64 27.13 26.69 28.09 27.11 26.61 24.86 24.99 25.38 27.06 27.42 27.12 26.78 25.90 24.13 25.39 25.68 26.09 27.95 28.27 27.99 27.06 29.52 30.78 31.07
26.38 26.40 25.92 25.63 25.59 26.27 26.57 25.59 24.41 24.34 24.44 25.15 24.06 23.75 24.63 25.95 28.08 25.30 26.11 26.26 27.81 28.05 27.80 25.36 25.98 30.16 31.17
25.86 25.66 25.67 25.45 25.03 24.66 24.76 24.32 23.31 23.51 23.75 24.06 22.14 20.56 19.92 19.59 25.70 29.95 26.47 27.04 27.03 26.48 27.76 27.42 26.97 28.67 29.90

GFSFLT2_sfc_wetblb_084.txt.gz
Wetbulb
42.08 41.96 41.60 42.05 42.43 42.49 42.14 41.36 41.99 45.48 46.06 45.91 46.00 46.47 46.36 46.07 45.91 45.61 45.30 45.25 45.47 46.11 46.52 47.22 47.81 47.87 47.46
40.56 40.67 39.44 40.17 40.84 41.56 41.76 42.32 41.83 42.01 43.30 43.41 43.58 43.55 43.53 43.67 43.55 43.53 43.33 43.23 43.20 43.67 44.18 44.60 45.15 45.50 45.74
39.80 40.40 38.98 39.32 39.61 40.07 40.14 40.21 39.14 37.96 39.10 40.37 40.84 41.31 41.83 42.72 41.99 41.18 41.10 41.20 41.58 41.80 42.04 42.22 42.70 43.38 44.12
40.22 38.67 39.27 39.26 39.98 38.56 38.97 38.79 37.85 37.74 37.03 36.34 36.88 36.57 37.23 38.52 39.18 39.44 39.66 40.10 40.79 40.44 41.15 41.10 41.07 41.85 42.41
38.27 38.27 37.12 36.82 35.70 36.20 35.74 36.18 36.76 36.24 36.44 37.12 36.66 37.29 37.60 36.57 36.19 36.14 37.28 38.19 38.85 39.63 40.16 40.42 41.08 41.59 41.70
35.54 34.40 33.91 34.65 35.32 34.29 33.94 33.22 32.94 35.75 34.01 34.45 35.45 35.38 36.64 37.17 34.84 35.96 36.70 37.39 38.12 38.85 39.84 40.49 40.44 40.75 41.05
33.57 33.62 33.10 33.68 32.88 32.41 32.49 32.13 32.10 34.10 32.86 32.50 34.97 34.55 36.33 35.71 33.81 35.42 36.55 37.49 38.15 38.87 39.20 39.66 39.82 39.92 39.34
34.42 34.07 34.65 34.87 34.40 33.63 33.16 32.54 33.76 33.59 33.42 30.92 34.25 33.46 35.55 36.21 33.19 34.60 36.93 37.41 37.19 36.92 37.23 37.78 37.84 38.18 38.51
33.83 33.49 32.96 33.99 34.27 34.41 32.75 31.56 30.91 31.24 32.96 31.13 32.60 31.47 33.16 33.55 35.24 36.10 35.42 34.88 34.85 35.48 36.22 36.30 36.39 37.07 37.70
31.76 31.45 32.40 33.43 33.27 33.03 32.62 30.53 30.35 30.41 31.83 29.64 30.52 30.56 30.15 33.25 33.84 35.23 35.30 34.33 33.84 34.60 35.01 35.34 35.42 35.57 36.25
31.53 31.99 32.17 32.52 32.85 32.63 31.89 31.34 29.01 29.29 31.56 29.89 28.52 28.90 29.23 29.14 31.97 33.61 33.82 33.71 33.88 34.10 34.56 34.53 34.37 34.20 34.23
30.18 30.38 30.66 31.14 31.71 31.92 31.44 31.46 31.50 30.16 31.17 31.44 28.52 27.98 26.75 26.03 26.98 32.09 33.03 33.65 33.94 33.14 32.66 33.53 34.28 34.32 35.30
29.22 29.75 30.82 31.60 30.32 30.29 31.11 31.68 31.95 31.70 32.33 31.98 29.39 28.84 28.26 26.47 26.16 27.30 28.36 31.49 33.28 32.20 31.37 30.85 32.20 33.24 32.30
29.76 30.47 30.71 29.78 29.08 29.85 28.41 28.55 27.54 27.54 32.71 32.01 30.54 29.46 27.00 27.22 27.55 26.67 28.72 27.16 31.41 31.48 31.58 31.72 32.10 32.25 32.52
29.29 29.26 29.14 29.29 28.53 29.36 28.02 27.33 25.59 25.57 26.55 29.35 30.27 29.69 29.22 28.39 26.34 27.80 28.31 29.20 31.20 29.93 28.95 28.37 30.39 31.77 32.39
29.21 29.14 28.64 28.46 27.85 27.56 27.35 26.28 25.01 25.32 25.67 27.12 27.16 26.60 28.07 29.57 29.92 27.64 28.48 28.86 30.72 30.16 28.96 27.03 27.19 31.07 32.42
28.69 28.69 28.64 28.04 27.23 26.63 25.87 25.20 24.78 25.48 26.14 26.61 25.24 23.54 22.19 22.53 29.49 31.22 28.04 28.92 29.20 29.02 29.67 29.37 28.83 30.25 31.61

GFSFLT2_sfc_wetblb_087.txt.gz
Wetbulb
42.99 42.25 41.53 41.66 42.53 43.38 42.97 41.98 42.28 45.69 46.59 46.75 46.74 46.89 46.92 46.92 47.05 47.09 46.76 46.46 46.22 46.61 47.46 48.19 48.51 48.30 48.18
41.32 41.07 40.01 40.86 41.45 41.34 41.72 42.36 42.09 41.59 43.50 44.16 44.13 44.03 43.99 44.15 44.08 44.19 44.12 43.86 43.42 43.75 44.27 44.80 45.16 45.45 45.77
39.72 40.52 39.77 39.81 39.82 40.37 39.60 40.00 38.90 39.26 40.12 40.95 41.41 41.82 42.42 43.13 42.47 41.96 41.65 41.52 41.62 42.11 42.44 42.63 42.89 43.41 43.95
40.20 38.65 39.02 38.96 38.82 36.50 37.10 37.32 36.09 37.95 37.44 36.79 37.14 37.07 37.66 38.29 38.90 39.34 39.76 40.23 40.80 40.67 40.62 41.04 41.01 41.44 42.23
37.43 37.53 35.71 35.03 33.42 34.06 32.60 33.07 33.83 33.53 33.27 33.72 33.41 34.00 34.71 36.25 36.42 36.39 36.67 37.51 38.25 38.96 39.69 40.17 40.40 40.85 41.37
34.98 32.28 31.72 31.95 32.80 31.62 31.34 30.22 29.82 33.29 30.87 30.94 32.26 31.52 33.07 33.61 36.20 36.56 36.99 37.32 37.73 38.33 39.00 39.96 39.82 40.22 40.47
31.74 31.26 30.70 31.80 30.99 30.64 30.07 29.64 28.98 30.93 29.92 28.75 31.32 30.52 32.36 34.54 34.57 35.51 36.35 37.34 37.70 38.48 38.70 39.20 39.51 39.65 39.95
33.18 32.42 32.95 32.89 32.28 31.91 30.58 29.87 30.97 30.63 30.58 27.70 30.75 29.73 31.91 32.37 34.55 34.74 37.02 37.87 37.46 37.22 37.00 37.43 37.74 38.05 38.48
34.64 34.14 33.64 34.57 34.05 32.02 30.65 29.38 28.70 27.99 29.97 27.86 29.53 28.42 30.23 29.87 31.49 36.27 35.79 35.56 35.52 35.67 36.19 36.62 36.60 36.78 35.82
29.78 30.23 31.99 32.79 33.82 30.59 30.47 27.03 28.03 28.31 29.08 26.65 27.89 27.55 25.56 29.20 30.03 30.95 31.12 35.46 34.58 34.96 35.61 35.97 36.29 32.76 31.76
29.11 29.38 29.68 30.19 30.31 30.04 29.75 28.90 28.32 28.03 30.40 27.56 27.73 27.70 28.18 26.95 27.89 29.59 30.19 30.26 30.07 30.79 34.87 35.57 35.95 34.68 28.59
28.27 28.39 28.75 29.33 29.97 30.05 30.02 30.47 31.34 28.13 31.13 30.63 25.28 27.77 26.73 25.08 24.92 27.71 27.97 29.41 28.19 29.72 31.44 32.68 34.57 35.22 36.08
27.76 28.61 29.57 29.81 28.20 27.51 30.44 31.03 28.95 30.08 30.44 25.37 24.99 27.96 27.39 25.70 25.45 26.45 27.09 29.78 30.70 28.93 30.30 30.11 30.30 31.36 27.82
28.47 28.81 29.58 28.88 28.49 29.95 28.51 28.63 27.42 27.65 30.91 30.60 24.14 22.63 25.81 26.90 26.37 25.40 27.04 25.73 26.87 26.35 28.77 29.93 30.07 29.68 29.86
27.87 27.89 28.28 28.08 28.19 29.28 27.84 27.07 25.53 25.05 26.29 29.55 30.15 29.65 28.37 26.77 24.44 25.11 25.03 25.96 27.80 29.47 28.80 27.37 28.72 28.53 29.12
27.91 27.69 26.95 26.50 26.09 28.26 27.95 26.07 24.85 25.15 25.55 27.18 27.55 26.51 26.20 27.32 29.27 24.20 25.09 25.29 25.32 29.38 28.91 26.66 26.13 27.69 29.27
27.38 27.03 26.77 26.53 26.37 24.16 23.90 25.68 24.43 24.38 25.64 27.01 25.83 23.80 20.30 19.48 25.34 32.42 24.82 22.82 27.73 27.46 27.55 26.77 25.74 27.32 28.38

GFSFLT2_sfc_wetblb_090.txt.gz
Wetbulb
41.68 41.14 40.46 40.63 41.75 41.67 42.23 41.68 42.49 46.12 46.73 46.59 46.67 46.93 47.39 47.78 48.03 48.12 48.08 47.89 47.57 47.48 47.74 48.18 48.73 48.89 49.12
39.97 39.35 39.01 39.93 39.24 37.84 39.97 40.40 36.86 42.26 44.43 44.80 44.88 44.64 44.43 44.65 44.67 44.99 45.05 44.77 44.24 44.42 44.85 45.24 45.61 46.17 46.40
38.19 39.50 37.93 36.20 36.03 36.66 36.22 35.04 36.34 40.49 41.13 41.31 41.90 42.56 43.45 43.56 43.34 42.78 42.40 42.15 42.41 43.13 43.36 43.41 43.47 43.78 44.39
38.60 35.89 35.23 35.60 34.47 31.59 31.91 32.24 31.29 35.52 37.10 36.97 37.66 38.03 38.66 38.92 39.85 39.51 39.87 40.41 41.06 40.99 40.74 40.76 40.86 41.16 41.95
35.53 31.37 31.23 29.88 28.55 29.01 27.85 27.97 28.21 28.92 28.34 28.87 29.49 29.74 31.45 35.96 36.72 37.20 36.97 37.47 38.11 38.69 39.35 39.84 40.09 40.54 41.19
26.98 28.77 26.70 26.88 27.71 26.99 25.28 22.69 22.87 28.16 26.23 26.33 28.13 27.51 29.26 31.11 36.55 36.54 36.91 37.53 37.68 38.11 38.69 39.49 40.03 39.95 40.16
27.02 26.06 25.64 27.55 25.50 24.68 25.67 24.39 23.61 26.47 26.43 25.00 27.26 26.95 28.84 33.38 35.74 35.46 36.16 37.34 37.76 38.48 38.87 39.06 39.18 39.51 39.61
28.18 28.41 28.38 28.71 28.70 28.21 26.80 26.13 27.32 27.24 26.90 21.45 26.69 26.52 28.30 28.59 35.61 36.04 37.35 37.91 37.88 37.59 37.35 37.22 37.60 37.88 38.48
35.35 34.83 35.18 35.35 33.54 28.19 24.61 23.38 22.97 24.69 26.55 24.92 25.34 25.02 27.20 27.35 29.11 36.37 36.16 35.99 35.76 35.81 36.19 36.66 37.06 37.13 34.66
26.62 28.62 31.36 32.05 33.77 27.45 25.20 17.77 19.69 20.55 25.45 20.89 22.36 22.56 18.89 26.26 27.17 28.50 28.79 34.72 35.55 35.13 35.63 36.07 36.45 32.38 29.91
25.14 25.38 26.37 26.50 26.94 27.01 27.76 20.53 17.85 16.85 28.64 20.90 18.52 24.46 23.01 23.85 23.66 25.06 27.10 28.53 27.72 28.44 34.24 34.87 35.47 35.01 26.91
25.11 24.24 24.38 24.03 24.52 26.05 27.40 25.82 25.61 23.16 24.92 29.26 20.25 20.76 24.86 24.25 20.97 23.61 22.27 24.37 22.32 22.26 29.09 32.67 33.57 34.39 35.18
23.40 22.58 23.02 22.10 21.99 22.86 24.79 29.00 28.40 28.12 28.00 26.51 18.48 16.48 24.80 24.36 22.65 24.83 25.90 23.58 27.58 26.65 29.88 29.94 29.97 30.68 29.39
22.77 23.29 23.70 20.64 21.31 23.24 22.57 27.16 26.49 26.42 29.96 30.21 28.25 18.96 13.53 18.89 25.64 24.82 26.25 24.31 20.68 26.11 29.48 29.70 30.18 30.37 27.90
22.39 23.17 25.35 25.47 24.96 22.84 25.13 26.11 24.70 23.79 25.30 28.56 30.17 28.82 27.47 26.54 24.18 25.21 24.80 22.22 22.15 25.15 28.91 28.15 29.31 29.61 28.43
24.36 24.70 25.20 25.42 24.62 21.51 21.02 21.29 20.55 20.61 24.61 26.15 26.90 26.56 26.43 25.90 29.33 23.72 22.27 21.73 20.26 26.65 29.03 26.79 26.66 26.31 27.28
24.76 24.67 25.82 25.69 27.67 22.00 19.62 19.53 19.21 19.51 19.63 25.81 25.27 23.90 19.90 18.51 21.86 30.15 23.99 17.33 19.84 21.55 23.60 23.45 24.48 26.43 26.80

GFSFLT2_sfc_wetblb_093.txt.gz
Wetbulb
41.32 41.22 40.41 40.79 41.77 41.33 42.25 41.53 42.63 46.50 46.63 46.76 47.02 47.31 47.67 47.98 48.48 49.01 49.31 49.39 49.23 49.05 48.73 48.68 48.90 49.13 49.43
39.54 39.18 39.04 40.00 39.26 37.59 39.54 39.70 37.02 43.43 44.57 45.07 45.15 45.24 45.19 45.21 45.68 45.98 45.84 45.45 45.31 45.68 45.95 46.12 46.95 47.31 47.48
38.24 39.35 37.59 35.50 35.78 36.02 36.13 33.19 35.78 40.14 40.62 41.18 41.70 43.60 43.92 44.01 43.95 43.50 43.27 42.99 43.83 44.07 44.14 44.03 44.21 44.49 45.14
38.37 36.78 34.45 35.25 33.53 33.18 31.10 31.09 30.01 33.63 35.96 37.11 37.81 39.02 39.25 40.24 39.95 39.58 40.12 40.88 41.60 41.42 41.04 40.97 41.08 41.42 42.15
36.18 30.16 30.96 29.72 30.13 28.87 27.80 27.35 27.16 27.04 27.04 27.67 27.85 28.21 30.94 36.76 36.88 37.14 37.02 37.28 38.14 38.72 39.32 39.76 39.95 40.33 40.91
27.16 29.90 27.11 27.49 27.69 27.09 25.47 22.41 22.77 27.18 25.20 25.59 26.87 26.69 28.46 30.07 36.44 36.58 36.87 37.55 37.63 37.93 38.39 38.94 40.15 40.11 40.11
28.17 27.23 26.63 28.02 26.79 25.04 25.28 23.39 22.92 25.84 25.52 24.63 26.32 26.40 27.84 31.96 35.98 35.70 36.12 37.17 37.62 38.45 38.97 39.14 39.15 39.34 39.51
29.20 28.11 28.07 28.33 28.62 27.49 26.31 25.32 26.30 26.75 26.01 21.23 25.65 26.06 27.37 27.79 36.06 36.85 37.80 37.62 37.94 37.94 37.94 37.33 37.77 38.02 38.61
35.91 36.46 36.61 35.68 31.73 27.68 24.18 22.99 22.50 24.19 26.01 24.51 23.99 24.17 26.09 26.95 28.62 36.49 36.36 36.26 36.07 36.07 36.29 36.65 37.08 37.06 36.19
26.87 30.97 31.09 32.91 33.94 27.88 25.25 16.98 18.41 19.73 24.94 20.42 21.19 21.75 17.99 25.07 26.06 27.76 28.10 34.19 35.72 35.22 36.01 35.78 36.26 34.20 30.80
25.17 25.49 26.44 26.30 26.03 27.01 26.86 19.29 13.70 15.15 28.16 20.74 12.02 18.07 17.71 19.13 22.87 24.08 25.66 27.19 27.04 27.58 33.67 34.21 34.56 34.76 32.43
25.02 24.40 24.62 24.52 24.25 25.38 27.22 25.19 23.69 20.65 24.74 23.17 14.32 13.40 13.44 20.91 18.41 22.92 21.16 23.86 20.90 20.59 27.79 32.25 33.27 33.63 34.23
24.41 23.52 22.97 23.66 21.60 21.14 23.43 23.24 20.56 25.61 27.31 24.60 23.48 10.77 13.07 19.73 17.98 21.40 24.10 22.73 24.36 22.53 29.54 29.61 29.88 30.37 28.89
22.82 22.88 22.54 19.88 19.75 18.68 16.03 18.16 20.35 23.23 27.25 29.75 27.29 26.57 23.15 15.88 17.06 20.55 22.35 22.05 18.56 19.50 22.58 24.74 29.95 30.39 29.61
23.21 22.99 24.82 24.07 22.71 18.63 18.15 19.42 20.58 18.16 19.20 22.88 29.12 27.70 25.70 24.46 23.37 24.13 24.93 25.06 18.99 20.00 24.39 24.61 25.07 27.98 27.89
23.21 23.39 23.93 23.44 22.83 20.82 20.20 21.91 21.37 20.04 17.93 17.77 19.34 21.32 23.72 26.36 29.21 24.24 24.35 23.67 20.09 20.72 25.21 26.41 24.22 24.93 26.84
22.77 22.05 22.74 23.72 27.47 24.31 23.91 22.78 20.32 19.38 18.18 16.44 16.99 17.76 16.62 17.40 22.41 28.62 22.72 24.58 23.66 24.56 23.63 21.90 22.66 25.03 25.96

GFSFLT2_sfc_wetblb_096.txt.gz
Wetbulb
41.11 41.13 40.61 41.29 41.91 40.44 41.22 41.08 43.16 47.16 47.28 47.02 46.96 47.39 47.57 47.70 48.29 49.19 49.84 50.23 50.64 50.66 50.23 49.87 49.65 49.74 50.07
39.28 39.22 39.14 40.12 39.89 38.98 39.08 37.78 38.78 43.98 45.12 45.29 45.76 46.02 46.00 46.19 46.10 46.02 46.08 46.20 46.71 47.22 47.73 47.69 48.36 48.43 48.54
38.32 39.36 38.00 35.73 34.38 35.06 33.89 32.60 34.92 39.42 39.96 40.83 43.11 44.10 44.43 44.54 44.20 43.83 43.66 44.53 44.81 45.04 45.21 45.07 45.06 45.36 45.84
38.38 37.11 35.49 34.34 33.39 32.33 30.65 30.30 29.46 32.61 35.51 37.38 38.46 39.66 39.88 41.04 39.71 39.84 40.54 41.63 42.22 42.05 41.48 41.48 41.48 41.85 42.55
36.12 33.55 30.55 30.31 29.28 29.13 28.36 27.68 27.02 27.03 27.33 27.71 27.41 27.99 31.43 35.48 36.25 37.21 37.13 37.52 38.41 38.98 39.39 39.78 39.88 40.20 40.82
26.27 30.70 28.27 27.92 27.28 27.79 26.89 23.67 24.66 27.37 25.20 25.44 26.28 26.40 27.61 29.22 36.34 36.63 36.96 37.56 37.65 37.88 38.32 38.79 39.67 40.18 40.17
30.81 29.81 27.03 28.65 28.21 26.22 25.83 24.31 24.03 25.90 25.52 24.11 26.00 26.01 27.50 30.54 36.03 36.22 36.11 37.17 37.68 38.56 39.13 39.34 39.28 39.22 39.24
29.61 28.48 29.24 29.34 29.40 28.88 26.96 25.48 25.95 26.56 25.45 21.21 25.04 25.70 26.82 27.52 35.97 37.40 37.97 37.17 37.92 38.16 38.32 37.51 37.79 37.98 38.40
35.39 35.49 35.63 35.12 31.99 28.35 26.06 24.55 22.74 24.08 25.53 24.32 23.44 23.87 25.40 26.63 28.15 36.64 36.50 36.48 36.25 36.27 36.37 36.60 36.88 37.11 35.42
29.62 31.96 32.88 34.10 35.13 29.06 26.74 18.70 20.00 19.93 24.72 20.53 20.97 21.08 17.70 24.65 25.47 27.08 27.48 34.78 35.68 35.59 35.96 35.81 35.86 31.84 30.50
26.14 26.98 27.07 27.45 27.44 27.97 27.12 21.03 16.87 15.09 26.85 19.52 10.68 17.22 15.31 18.49 22.78 23.79 25.77 26.19 26.12 26.77 32.51 33.98 34.40 34.26 31.92
25.62 25.70 26.02 26.19 25.99 26.85 27.18 24.99 23.26 20.73 24.68 17.91 11.68 13.22 9.75 14.59 19.45 23.06 21.50 21.68 20.43 21.19 22.22 30.60 33.08 33.58 33.86
25.32 25.19 25.80 26.19 24.65 22.98 23.70 22.28 17.37 22.89 25.38 17.70 17.76 12.20 16.51 16.06 15.60 18.56 20.73 21.61 21.69 19.15 27.72 24.60 28.38 29.59 28.63
24.91 24.91 24.53 23.53 23.37 20.40 16.72 14.90 14.64 17.78 24.35 23.01 21.50 21.80 20.82 23.78 19.18 16.44 18.03 16.10 17.47 18.44 21.29 21.67 25.03 28.37 29.66
24.57 24.20 25.49 25.04 24.35 18.98 15.57 13.99 13.51 13.52 16.48 20.92 26.96 26.81 25.29 21.24 19.40 20.76 20.01 24.43 26.00 18.52 20.56 20.05 22.41 25.97 26.93
24.01 24.26 24.48 24.34 22.33 18.42 16.20 18.04 19.23 15.88 15.30 15.50 17.07 19.92 23.18 25.22 28.35 22.02 22.20 24.52 24.98 19.75 21.53 20.73 18.45 24.21 26.55
25.23 23.42 23.29 23.08 26.51 22.47 22.67 23.13 22.46 19.06 19.18 15.29 13.49 14.88 17.35 17.04 21.47 29.54 20.80 18.85 19.08 20.05 22.52 22.29 22.70 23.89 25.33

GFSFLT2_sfc_wetblb_099.txt.gz
Wetbulb
41.21 41.42 41.36 41.99 41.85 41.40 41.35 41.51 43.96 47.57 47.31 47.11 47.33 47.46 47.96 48.46 49.20 49.80 50.79 51.68 52.18 52.39 52.19 51.47 51.32 51.26 51.17
39.26 39.38 39.44 40.58 40.76 39.56 38.65 38.74 39.52 44.27 44.58 46.01 46.21 46.55 46.51 46.14 46.15 46.38 46.87 47.65 48.31 49.07 49.29 50.02 49.84 49.88 50.17
38.40 39.41 38.24 37.89 36.74 36.12 32.77 31.69 33.86 38.71 40.30 42.07 44.37 44.74 45.29 44.78 44.37 44.54 45.17 45.61 45.79 45.94 45.91 46.18 46.52 46.90 47.18
38.62 37.42 36.43 36.40 35.46 31.94 29.67 29.75 29.12 32.17 35.86 37.28 39.06 40.33 41.75 40.76 40.39 40.35 41.27 42.64 43.24 42.86 42.41 42.16 42.20 42.67 43.33
36.88 35.04 33.78 32.75 30.34 30.51 28.68 27.75 27.23 27.09 27.54 27.72 27.67 28.44 31.59 34.46 36.02 37.96 37.92 38.58 39.37 39.82 40.11 40.30 40.16 40.47 41.15
34.18 34.34 31.92 29.77 28.22 28.50 26.44 25.26 24.82 27.34 25.45 26.14 26.86 26.95 27.62 28.74 36.83 37.03 37.33 37.95 37.80 37.95 38.37 38.83 39.67 40.26 40.66
32.66 30.87 28.54 28.57 27.81 26.09 26.84 25.72 25.01 26.56 26.03 24.65 26.45 26.53 27.61 29.93 36.48 36.98 36.23 37.41 37.92 38.77 39.56 39.65 39.46 39.36 39.30
33.07 31.10 29.58 29.38 30.01 29.62 27.97 26.21 26.73 27.26 26.05 22.94 25.74 25.83 26.59 27.27 35.53 37.92 37.91 37.27 38.09 38.45 38.60 38.10 38.18 38.39 38.79
34.86 35.57 35.71 35.14 32.09 28.77 27.52 26.30 24.69 25.13 26.36 25.95 24.50 24.39 25.07 26.34 27.93 36.62 36.77 37.05 36.72 36.66 36.69 36.80 36.99 37.36 34.55
30.62 32.37 33.97 34.21 34.83 29.23 28.02 22.71 22.89 22.33 26.17 23.82 22.38 21.29 18.33 24.54 25.11 26.41 27.13 35.32 36.04 35.90 36.07 36.05 36.07 30.55 29.15
27.78 28.07 28.01 28.32 28.11 28.42 27.95 24.10 19.19 20.27 27.54 21.06 11.40 17.33 14.87 18.39 22.67 23.74 25.24 25.75 26.03 26.79 31.96 34.07 34.61 33.31 26.23
26.26 26.29 26.40 26.48 27.26 27.86 27.67 26.48 26.18 24.99 27.38 19.05 12.75 14.26 7.68 12.14 17.86 22.59 21.16 21.11 21.34 21.45 21.84 29.79 32.86 33.79 34.27
25.38 25.23 26.36 26.93 26.15 25.96 25.95 25.44 24.65 26.04 26.03 18.29 16.20 8.71 11.82 10.68 13.55 18.54 19.91 21.04 21.89 19.61 20.49 21.21 21.85 25.48 23.65
25.69 26.11 25.64 23.75 24.28 23.28 20.20 22.24 20.83 20.07 24.66 20.56 16.93 16.74 13.60 15.34 16.94 15.69 18.21 16.21 17.91 19.42 21.47 21.41 24.06 25.44 25.89
25.16 25.11 26.01 25.80 24.66 20.04 18.42 15.28 16.45 15.65 17.51 21.41 26.70 24.33 21.80 18.63 17.22 20.11 20.58 16.88 19.49 20.36 20.54 16.54 21.52 23.89 25.81
25.94 24.81 24.07 23.91 23.12 17.99 15.97 16.72 17.34 16.82 16.08 17.47 17.47 20.71 22.97 24.87 28.00 22.33 19.78 21.14 25.70 25.43 21.95 21.16 23.23 23.58 26.14
27.06 24.75 23.22 23.77 26.36 21.83 20.43 19.84 20.04 19.13 20.31 19.97 17.86 17.70 18.21 17.84 22.65 30.64 23.84 18.38 20.11 22.90 22.03 21.67 18.97 22.23 25.36

GFSFLT2_sfc_wetblb_102.txt.gz
Wetbulb
41.50 41.96 42.06 42.42 41.89 41.42 40.96 42.49 45.40 47.89 47.83 47.80 47.88 48.15 48.21 48.44 49.14 50.77 52.12 53.48 54.52 54.81 54.69 54.32 53.85 53.07 52.25
39.45 39.70 39.97 41.20 41.19 39.82 37.76 38.75 39.81 44.44 45.89 46.74 47.06 46.98 46.86 46.48 46.69 47.64 48.43 49.54 50.38 51.49 52.03 52.07 52.45 51.83 51.75
38.56 39.58 38.73 38.39 37.31 36.47 34.31 33.47 34.96 39.55 41.40 44.16 44.86 45.57 45.03 44.50 45.08 45.47 46.18 46.79 47.04 47.29 47.81 48.44 48.95 49.32 49.36
39.25 37.75 37.15 36.98 36.64 33.99 31.39 29.54 29.45 32.02 35.53 37.76 39.76 42.11 41.45 40.99 40.58 41.33 42.91 43.99 44.17 44.07 43.72 43.47 43.95 44.86 45.27
37.63 35.72 34.51 33.77 34.03 33.14 30.37 27.17 26.97 27.25 27.95 27.70 28.75 29.46 31.67 34.94 36.58 38.53 39.18 40.42 41.16 41.52 41.62 41.42 41.33 41.63 43.07
35.58 35.33 33.92 33.59 31.75 31.07 27.71 26.48 26.90 27.48 26.34 27.13 28.04 28.07 28.32 30.08 37.21 37.44 37.91 38.37 38.57 38.92 39.42 39.88 40.58 41.15 41.94
35.91 35.31 33.64 32.47 29.58 27.86 27.24 25.90 25.60 26.33 26.69 24.94 27.47 27.36 28.61 30.31 37.25 37.22 36.80 37.93 38.83 39.27 40.06 39.96 40.48 40.29 40.34
34.89 34.41 32.06 30.39 31.36 30.57 28.70 25.84 26.52 27.29 26.76 24.24 26.60 26.66 27.86 28.55 35.88 38.17 37.23 38.24 38.50 39.74 39.37 39.31 39.49 39.79 39.70
35.36 35.64 35.87 35.72 32.48 29.43 27.06 26.75 25.63 26.16 27.19 26.80 25.78 26.14 26.39 27.45 28.87 37.04 37.66 38.01 37.68 37.93 37.73 37.61 37.75 37.76 35.40
29.97 31.57 34.06 34.68 35.00 29.49 29.14 26.04 25.46 25.05 27.11 25.85 24.73 24.41 22.61 25.75 26.34 27.08 28.02 35.97 36.64 36.42 36.66 36.46 36.90 30.40 29.79
28.13 28.43 28.53 28.25 28.33 29.02 28.88 26.67 23.91 24.58 28.54 24.67 20.23 22.75 19.54 22.31 24.25 24.91 25.67 26.07 26.02 26.74 32.31 34.47 35.23 33.21 27.74
26.46 26.89 27.23 27.15 27.80 28.13 27.79 26.89 27.96 27.13 29.95 24.34 20.45 19.93 15.74 17.36 20.97 23.49 21.36 21.67 21.31 21.73 22.81 29.78 33.83 34.52 35.06
25.38 25.23 26.89 27.23 26.06 25.54 26.43 26.67 25.78 28.22 27.19 23.49 22.72 16.03 16.10 15.37 18.74 20.40 19.86 21.61 22.20 20.04 21.74 22.78 23.41 25.46 24.04
24.88 25.34 25.49 23.05 23.05 23.77 23.10 22.49 20.19 21.39 25.74 20.56 21.35 20.47 14.85 16.54 17.26 15.84 19.76 16.98 18.17 20.11 23.49 23.65 24.99 25.89 25.27
24.78 24.60 25.34 24.78 25.35 23.61 22.07 18.36 17.09 17.17 17.87 21.95 25.63 22.91 21.49 19.07 15.67 19.97 20.98 18.86 20.21 20.94 22.26 18.87 22.38 24.10 24.91
24.95 25.46 25.54 24.77 23.69 20.45 18.46 18.36 18.34 17.10 16.03 17.19 17.88 20.51 22.19 25.22 27.64 22.18 19.64 18.50 20.36 24.91 25.38 22.01 22.11 24.22 25.35
27.45 24.42 22.40 21.93 26.27 22.62 20.80 20.41 19.04 19.44 19.57 20.12 17.97 16.53 14.62 18.16 23.27 30.49 23.87 18.21 21.32 24.23 24.38 22.61 22.83 22.19 25.76

GFSFLT2_sfc_wetblb_105.txt.gz
Wetbulb
43.28 43.84 43.68 43.71 43.16 42.54 43.71 45.15 47.94 48.43 48.56 48.08 48.31 48.05 48.16 48.95 49.91 51.55 53.47 55.29 58.14 58.76 58.07 57.08 55.98 54.76 53.84
41.25 41.17 41.76 42.63 41.89 40.00 39.94 39.69 42.84 45.76 47.39 47.60 47.59 47.13 46.87 47.72 48.41 49.35 50.16 51.74 53.12 53.86 54.40 54.51 54.17 53.43 52.88
41.10 41.20 40.20 39.97 38.43 36.72 35.75 35.42 37.38 41.40 43.08 45.40 46.28 45.49 44.76 45.08 45.83 46.63 47.37 48.07 48.65 49.33 50.63 51.80 52.20 52.30 52.02
40.94 39.17 38.66 38.33 38.16 35.16 33.04 33.36 33.29 35.40 37.89 40.01 42.11 42.34 41.58 41.25 41.73 43.13 44.55 45.18 45.69 45.90 45.79 46.25 47.41 48.32 48.78
39.21 37.37 36.11 35.33 35.82 35.65 33.27 31.74 31.71 34.64 34.68 33.93 35.79 35.45 36.03 37.35 38.30 39.54 41.09 42.27 42.97 43.33 43.16 42.98 43.36 44.50 45.43
37.95 37.01 36.63 36.54 35.13 33.90 31.24 30.68 32.03 33.77 33.66 32.17 33.28 32.85 34.11 36.99 37.70 38.21 38.55 39.00 40.01 40.40 40.86 41.06 41.73 43.32 44.21
37.68 37.43 36.16 35.61 34.35 32.32 31.52 32.70 33.61 31.09 31.09 31.32 33.07 32.32 33.95 34.86 38.05 37.32 37.80 38.65 39.08 39.63 39.98 40.65 41.30 41.70 41.43
37.07 37.56 37.28 37.38 38.31 36.31 34.93 31.71 30.59 29.69 31.36 30.68 31.55 31.45 32.93 33.49 36.08 38.37 37.58 38.68 39.51 40.24 40.39 40.58 40.59 40.41 40.52
35.88 36.21 36.39 36.73 35.80 34.22 32.15 31.96 29.95 29.72 30.76 31.35 29.69 29.97 30.79 32.08 34.41 37.65 38.59 39.27 39.25 39.55 38.94 39.01 39.10 38.98 39.67
34.47 34.54 36.18 36.77 35.31 33.86 33.47 32.80 30.68 28.79 30.41 30.72 28.48 29.65 29.07 30.27 31.83 33.14 35.21 36.90 37.31 37.54 37.57 37.99 38.02 37.31 37.16
32.49 32.14 32.57 32.39 32.32 32.23 32.73 33.82 31.39 31.08 31.09 31.06 28.88 28.09 28.81 28.71 29.54 30.59 32.00 32.86 33.42 33.47 34.53 36.12 37.06 36.07 35.59
30.36 30.79 30.51 30.54 30.84 31.32 30.83 31.11 31.83 32.51 32.96 30.83 28.99 28.95 28.35 27.10 27.99 28.46 29.38 30.07 31.04 31.67 32.43 32.80 34.98 36.34 36.41
28.40 29.69 30.57 31.40 29.95 29.76 29.74 29.81 30.88 31.56 30.25 28.94 29.32 25.93 27.98 28.39 27.31 26.99 28.14 29.39 29.79 30.22 30.29 30.64 32.23 32.77 32.24
29.23 29.60 29.57 29.15 29.26 29.64 28.93 28.58 28.94 28.50 29.07 27.60 28.37 27.78 26.87 27.07 27.04 26.70 27.83 27.67 27.86 28.76 29.20 29.46 29.91 30.46 30.64
29.16 28.73 28.44 28.58 28.43 28.43 28.19 27.44 28.21 27.34 27.43 27.99 28.14 27.64 28.24 27.36 25.94 26.28 26.81 26.99 27.85 28.22 27.30 27.56 29.02 29.74 29.90
29.54 29.19 28.80 28.31 28.22 27.63 27.67 27.49 27.44 27.06 26.53 26.85 27.33 26.69 26.99 28.32 29.67 27.40 26.95 26.88 27.75 27.45 27.37 25.99 26.10 28.67 29.50
30.40 29.45 28.69 28.23 29.15 27.36 26.86 26.58 26.06 27.12 27.17 26.76 26.09 25.92 23.72 22.90 27.58 31.05 27.59 27.18 26.64 26.74 27.73 26.42 26.25 28.97 30.37

GFSFLT2_sfc_wetblb_108.txt.gz
Wetbulb
49.02 47.53 46.40 45.83 44.87 44.10 45.03 46.38 48.23 48.35 48.30 48.26 48.03 47.87 48.57 49.47 50.75 52.04 54.13 57.25 60.43 60.76 60.80 60.23 58.71 57.21 56.12
45.13 43.91 44.03 44.51 43.16 40.96 40.85 40.75 43.85 47.03 47.32 47.70 47.51 46.78 47.06 47.57 48.72 49.65 50.86 52.30 54.11 56.94 57.42 56.61 55.86 55.29 55.16
43.83 42.93 42.23 41.92 39.49 37.55 36.74 36.54 39.08 40.95 44.09 46.21 46.00 45.05 44.72 45.17 46.27 47.23 47.85 49.09 49.92 51.11 53.22 53.72 53.66 53.52 53.48
44.00 41.62 40.92 40.24 39.33 36.03 34.31 34.89 34.73 36.70 39.53 42.19 43.01 41.71 41.26 41.80 42.46 43.82 45.12 46.24 47.12 47.63 47.92 48.73 50.44 51.79 52.26
41.93 39.44 37.94 36.85 36.87 36.96 35.00 33.65 33.17 34.67 36.10 39.33 41.03 39.98 38.60 38.72 39.22 40.64 42.46 43.65 44.31 44.58 44.93 45.57 46.39 47.46 47.96
40.11 37.93 37.98 38.32 37.90 35.67 33.06 31.91 31.61 34.95 36.74 37.09 37.55 36.58 37.25 39.42 37.98 38.56 39.32 40.48 41.36 41.96 42.11 42.56 44.02 45.25 46.52
38.82 39.35 38.71 38.26 37.01 34.67 33.44 34.31 34.87 34.16 37.25 35.38 35.51 34.47 34.76 36.86 38.36 37.20 38.01 38.73 39.33 39.96 40.46 41.20 42.52 43.23 43.55
38.18 38.75 38.42 38.06 37.51 37.59 36.01 33.51 32.71 33.10 35.49 33.12 33.66 32.98 34.79 37.24 36.80 38.36 37.89 38.82 39.61 40.25 40.33 41.23 41.32 41.41 41.25
37.08 36.92 37.41 37.95 39.89 38.93 34.50 34.48 34.29 34.26 33.21 33.23 32.20 32.45 33.88 34.62 37.15 38.42 38.29 39.14 40.18 40.01 40.17 40.56 40.65 40.43 40.47
35.83 36.69 38.09 37.47 36.40 38.90 38.83 36.88 35.17 32.48 34.13 33.07 30.58 31.71 30.85 33.45 35.45 36.47 37.76 38.06 38.07 38.89 38.66 38.80 39.13 39.42 39.75
35.90 36.14 36.27 35.96 35.90 35.94 36.65 37.39 35.76 35.18 34.38 34.47 33.13 31.68 32.85 30.52 32.13 34.09 35.63 35.60 36.40 36.62 36.30 37.40 38.48 37.74 37.79
33.85 34.09 33.98 33.97 34.12 34.55 34.00 34.75 35.07 33.88 35.10 33.30 32.52 33.19 33.03 30.93 30.48 31.58 32.57 34.11 34.54 34.94 35.50 35.58 36.58 37.46 37.08
31.70 32.47 33.99 34.86 32.97 32.56 32.39 32.98 32.72 33.42 32.90 31.99 33.24 31.64 32.57 32.56 30.78 30.11 30.27 31.54 32.39 32.92 33.45 33.40 34.40 35.47 34.82
32.62 32.74 33.27 32.54 32.31 33.07 32.16 32.06 32.09 31.46 31.38 30.93 31.53 31.56 30.77 31.12 31.14 30.14 31.05 30.27 31.51 31.88 32.18 32.57 32.97 33.60 33.71
32.77 31.86 31.18 31.48 31.29 31.99 31.87 31.36 31.31 30.71 30.06 30.23 30.35 30.62 30.93 30.48 28.95 29.85 30.44 30.08 30.99 30.87 29.93 30.06 31.64 32.07 32.05
33.09 32.81 32.02 31.17 31.23 30.86 31.25 30.52 30.35 30.89 30.35 30.52 29.54 28.89 29.13 30.37 31.43 30.31 29.63 29.95 31.22 30.28 30.25 29.05 30.11 32.42 32.11
33.66 33.42 32.92 32.22 31.37 30.44 29.89 29.77 29.59 30.46 31.07 30.95 29.41 28.41 26.92 26.31 30.26 32.11 30.52 30.16 29.89 28.69 29.28 28.96 29.27 31.36 31.64

GFSFLT2_sfc_wetblb_111.txt.gz
Wetbulb
49.82 47.97 47.99 46.79 45.05 44.67 45.54 46.32 48.22 48.66 48.45 48.22 47.94 47.85 48.01 48.45 49.75 51.28 52.48 55.58 60.11 61.21 61.23 61.57 61.57 60.57 58.92
47.65 46.03 45.12 45.34 43.61 41.73 40.60 40.89 44.18 47.34 47.80 47.68 46.99 46.38 46.48 46.85 48.00 49.16 50.13 52.06 55.66 58.85 59.86 60.05 58.61 57.58 56.98
45.32 44.13 42.89 42.38 39.35 38.51 37.74 37.39 39.60 41.03 43.77 46.28 45.75 44.59 44.37 44.61 45.73 46.72 47.91 49.46 50.94 52.62 54.23 55.37 56.00 55.97 55.70
44.13 42.71 41.79 41.08 39.92 36.99 35.20 35.66 35.62 37.19 40.22 42.85 42.65 41.52 41.65 42.36 42.72 43.85 45.51 47.11 48.84 49.70 50.47 51.04 52.52 53.64 54.37
42.28 40.59 38.68 37.32 37.27 37.77 35.57 33.95 33.74 34.32 34.84 36.25 39.56 37.52 36.45 39.19 40.18 41.38 43.19 44.51 45.38 46.35 47.65 48.11 49.06 49.54 49.89
40.87 39.05 38.46 38.04 38.03 35.70 33.53 32.09 32.36 34.49 33.47 34.60 34.88 33.76 34.41 36.35 38.59 39.21 40.34 41.64 42.60 43.16 43.91 45.32 46.00 47.83 47.59
39.34 38.72 38.52 38.53 37.04 34.79 33.61 33.50 34.04 33.37 33.47 34.28 32.64 31.34 32.94 36.63 39.31 37.75 38.58 39.42 40.49 41.25 41.77 43.34 45.21 45.62 44.92
37.02 38.71 37.98 37.93 37.77 36.82 35.07 32.85 31.83 31.55 33.07 32.64 31.37 30.33 31.90 34.24 37.73 38.35 38.13 39.12 39.82 40.29 40.65 42.00 42.81 42.38 42.96
37.99 37.79 38.66 39.52 39.14 35.50 32.75 32.57 31.90 31.53 32.24 30.83 29.47 29.46 30.26 31.33 35.32 38.61 38.69 39.11 40.42 40.71 41.01 41.21 40.96 41.16 40.11
35.15 36.08 38.02 37.73 38.64 36.67 36.51 34.39 34.55 31.70 31.79 30.32 28.57 28.71 26.52 30.81 33.39 34.49 35.48 39.44 39.77 39.75 39.87 40.25 40.19 37.58 36.60
33.22 33.73 34.12 34.24 33.45 33.47 34.34 34.95 32.92 31.42 32.48 31.90 28.93 28.59 30.19 26.88 29.83 32.06 33.51 34.25 34.63 35.70 38.17 39.04 39.14 37.58 35.20
31.46 31.66 31.59 31.55 31.53 32.13 32.04 32.44 32.44 32.51 32.28 31.79 31.04 29.41 29.10 27.16 27.12 30.69 31.65 32.87 33.20 33.08 33.43 36.01 37.86 38.36 37.78
30.03 30.81 31.79 31.43 30.49 29.68 30.38 31.35 31.56 31.13 30.85 26.94 30.88 28.01 29.49 28.91 28.85 28.38 27.80 29.95 31.28 31.38 31.21 30.47 30.87 32.27 30.65
30.58 31.02 31.34 29.67 29.45 30.33 28.89 29.81 29.84 28.55 30.16 28.28 28.71 28.42 25.92 27.66 29.28 28.33 28.47 27.33 29.83 29.79 30.41 29.99 31.12 31.90 31.88
30.92 30.12 29.84 30.01 29.44 29.41 28.85 29.34 27.61 28.71 28.27 28.73 29.72 29.58 28.86 27.00 25.25 28.51 28.11 27.23 28.19 27.97 28.99 28.14 29.67 30.60 30.35
30.84 30.46 29.28 28.69 28.21 27.92 28.49 28.64 28.01 28.96 28.34 28.37 27.31 26.30 26.74 28.62 31.06 27.45 28.35 27.90 28.74 29.20 27.94 25.95 27.08 30.50 30.88
30.75 30.06 29.40 28.99 29.34 28.27 28.39 28.48 28.38 28.50 29.64 30.14 28.39 25.88 22.50 22.47 27.66 32.74 27.89 28.87 28.72 28.16 27.72 27.46 26.04 28.65 29.99

GFSFLT2_sfc_wetblb_114.txt.gz
Wetbulb
45.57 45.74 46.28 44.16 44.49 44.26 45.07 45.50 47.58 48.89 48.60 48.33 47.87 47.50 47.46 47.65 48.51 50.23 51.73 53.35 57.84 60.52 61.43 61.89 61.80 61.55 61.21
45.50 44.39 44.20 44.53 43.23 41.71 40.66 41.50 44.48 47.29 48.39 47.92 46.77 45.98 45.75 46.12 46.60 48.50 49.80 51.65 54.23 57.82 59.57 60.21 60.92 60.51 59.92
44.23 43.49 42.19 41.83 39.12 38.46 37.99 37.96 39.63 41.55 43.80 46.18 45.30 44.29 44.10 44.51 45.04 46.20 47.70 49.74 51.61 52.89 55.10 57.53 58.43 58.44 58.15
42.54 42.03 41.33 40.69 39.89 37.78 35.89 36.07 36.57 37.47 39.98 43.02 42.49 41.04 41.11 41.78 42.59 43.54 45.51 47.36 49.59 51.11 51.72 52.48 53.60 55.34 56.23
40.52 38.71 38.91 37.62 37.33 38.13 36.16 34.89 34.64 35.16 34.83 35.62 38.19 36.59 34.57 37.97 38.83 41.45 43.51 44.91 46.51 48.21 49.53 50.20 50.38 50.98 51.52
38.30 38.34 38.44 38.23 38.30 36.13 34.24 32.69 33.80 34.46 32.95 33.50 34.24 32.90 31.64 33.78 38.99 39.54 41.10 42.46 43.61 44.99 46.81 47.77 48.40 48.47 48.62
38.41 37.77 38.17 38.58 36.84 35.04 33.92 33.38 33.88 33.31 32.98 32.82 32.34 29.72 30.26 35.84 39.14 38.37 39.08 40.31 41.44 42.23 44.75 46.79 46.63 46.31 46.34
33.67 35.89 37.97 37.87 37.97 37.02 35.52 33.66 31.73 31.88 32.68 31.97 31.09 27.65 28.81 30.42 37.82 38.52 38.39 39.15 40.14 40.62 42.07 43.95 44.79 44.55 44.77
38.62 38.70 38.80 40.15 39.37 35.44 32.51 31.90 31.22 30.88 31.36 31.65 29.88 26.98 27.48 28.32 32.33 38.56 38.46 39.34 40.41 40.89 41.97 42.21 42.21 42.89 41.84
31.89 33.61 37.61 37.99 40.57 36.20 34.03 32.85 33.04 31.61 31.80 31.09 24.25 24.71 21.26 27.75 29.96 31.53 32.73 39.40 40.32 40.48 41.35 41.14 40.96 36.82 35.98
29.41 30.22 30.94 30.73 30.13 31.74 32.92 34.27 32.84 32.60 29.89 28.14 22.98 23.05 28.80 22.56 25.09 27.10 31.33 32.01 31.91 33.69 39.25 39.96 39.73 37.71 34.87
28.54 28.36 27.21 25.99 26.03 27.28 29.32 28.78 31.77 32.20 29.32 27.34 28.55 22.82 21.87 21.20 22.90 25.91 26.52 26.88 27.41 28.21 29.96 35.91 38.88 38.86 38.33
26.01 24.93 24.96 27.51 25.98 24.61 26.32 30.30 30.05 27.47 29.16 27.77 29.86 30.49 30.41 25.93 22.75 23.47 23.75 25.58 28.03 28.44 28.75 29.17 30.66 32.62 31.63
25.40 25.13 25.72 22.38 22.83 22.31 19.49 20.56 21.06 26.66 27.98 25.23 26.69 25.84 24.45 25.19 23.80 22.30 25.40 23.47 25.56 27.43 29.38 29.65 31.46 32.16 32.16
24.89 25.03 26.40 25.31 24.80 21.87 20.78 20.00 19.67 20.83 23.95 26.54 29.36 29.50 28.67 27.12 24.09 25.93 25.66 25.39 26.00 26.52 27.75 26.35 29.06 30.32 30.41
25.35 25.74 24.40 23.57 21.58 20.60 20.08 19.64 20.30 22.01 22.76 23.59 24.00 25.94 26.48 28.62 31.50 25.87 26.98 25.93 25.98 28.02 27.37 22.64 25.90 28.92 30.62
26.64 24.29 22.30 22.74 27.89 23.31 22.94 20.93 21.22 23.45 24.73 27.93 24.92 22.93 20.23 20.87 27.42 32.67 26.41 27.22 26.60 26.23 27.20 26.29 23.01 26.74 30.56

GFSFLT2_sfc_wetblb_117.txt.gz
Wetbulb
44.45 43.43 43.68 43.30 44.01 43.02 44.72 44.94 47.21 49.03 49.01 48.60 47.70 47.22 47.09 47.11 47.50 48.27 50.43 52.20 53.88 57.01 60.68 61.36 61.24 61.04 61.49
43.03 42.66 44.06 44.31 43.29 42.22 41.10 41.04 43.63 45.92 48.71 48.16 46.60 45.80 45.39 45.44 45.90 46.76 48.40 50.09 52.07 54.95 59.14 60.29 61.18 60.57 60.88
41.91 41.91 42.54 41.94 39.96 37.99 38.54 37.76 39.72 41.93 43.93 46.04 45.15 44.05 43.52 43.51 44.21 44.86 46.37 48.11 50.65 52.52 54.81 57.82 58.25 58.59 59.81
40.90 42.25 41.81 40.20 37.41 38.48 37.34 36.82 37.40 38.29 39.97 42.56 43.26 41.13 41.40 41.94 41.47 42.54 44.27 46.11 49.00 51.76 51.87 52.52 55.01 56.51 57.19
38.92 39.93 39.31 36.89 35.80 37.65 36.70 35.97 35.73 36.39 35.78 36.40 37.36 36.56 36.60 37.05 38.26 40.65 42.86 44.66 46.21 49.02 50.98 51.40 51.41 53.47 55.90
38.12 38.09 38.32 38.38 37.61 36.70 35.08 33.53 34.66 34.83 33.38 33.81 34.27 32.97 33.60 34.43 40.37 39.69 40.87 42.56 43.95 46.53 48.55 48.87 49.09 49.89 52.38
37.19 37.95 37.24 38.86 37.12 35.30 34.41 33.93 34.44 34.14 33.05 32.62 32.36 31.53 31.07 34.21 38.65 39.82 39.44 40.72 41.95 43.49 47.03 47.12 47.33 48.03 50.27
34.02 35.68 37.85 38.45 38.18 37.22 36.14 34.54 32.39 32.46 33.01 31.66 31.19 30.30 28.46 29.39 37.61 39.06 38.73 39.56 40.65 41.51 44.39 45.15 45.48 46.72 48.15
38.52 38.82 39.19 39.96 39.82 35.95 33.13 32.37 31.69 32.03 31.27 31.49 30.33 29.08 27.05 27.55 30.37 38.77 38.42 39.56 40.28 40.45 42.52 42.64 44.25 43.96 44.22
31.09 32.62 36.32 37.03 40.65 36.47 33.83 32.74 32.87 31.89 31.71 28.96 28.19 24.23 21.15 26.85 28.56 30.55 31.73 39.04 40.09 40.74 41.20 41.22 40.80 35.80 35.09
29.19 29.74 30.44 29.74 29.41 32.09 33.26 33.79 32.98 33.02 31.27 25.60 20.10 21.98 22.47 23.83 26.92 28.12 29.58 30.62 31.78 31.86 39.13 40.46 39.78 37.32 33.95
28.37 27.88 27.19 26.01 25.86 26.31 28.74 28.38 31.90 32.36 32.41 23.44 20.96 18.88 18.42 21.33 24.36 27.26 25.67 25.45 26.05 26.71 26.85 35.43 39.23 39.29 38.98
26.33 25.49 25.65 26.68 25.26 25.26 28.41 29.86 29.05 29.14 30.33 30.05 27.83 29.59 23.48 20.99 25.00 26.75 25.75 27.18 27.37 25.44 26.99 26.68 28.26 30.43 29.49
25.71 25.62 29.05 27.64 21.87 20.33 16.96 26.61 20.63 25.44 26.02 26.65 28.46 22.91 20.67 24.01 26.48 25.89 27.34 24.88 26.53 27.76 29.98 29.17 31.85 31.70 31.72
25.40 25.76 26.34 24.66 23.85 19.64 17.81 17.09 16.99 21.26 24.15 24.52 28.31 28.49 26.58 25.64 26.13 27.57 27.42 27.11 26.27 28.12 29.04 28.70 30.48 31.59 31.32
25.12 25.06 23.36 21.77 20.09 20.34 17.79 17.08 16.48 20.15 20.23 22.12 22.65 23.80 26.71 28.81 31.62 26.55 25.78 26.45 26.26 28.62 28.65 26.14 26.65 29.13 30.76
24.13 22.31 20.22 19.75 25.15 19.28 18.42 18.63 19.92 23.80 24.03 23.76 21.20 17.10 17.67 22.91 27.44 32.83 25.39 24.87 25.98 26.35 26.33 27.46 25.32 27.11 29.58